Time,TemperatureF,DewpointF,PressureIn,WindDirection,WindDirectionDegrees,WindSpeedMPH,WindSpeedGustMPH,Humidity,HourlyPrecipIn,Conditions,Clouds,dailyrainin,SoftwareType,DateUTC
2013-01-24 00:02:00,51.9,43.9,30.22,SW,231,2.0,7.0,74,0.00,,---,0.00,VWS V14.01,2013-01-24 06:02:00,
2013-01-24 00:04:00,52.0,44.0,30.22,WSW,246,7.0,9.0,74,0.00,,---,0.00,VWS V14.01,2013-01-24 06:04:00,
2013-01-24 00:07:00,52.1,44.4,30.22,WSW,241,7.0,9.0,75,0.00,,---,0.00,VWS V14.01,2013-01-24 06:07:00,
2013-01-24 00:09:00,52.1,44.4,30.23,WSW,254,4.0,9.0,75,0.00,,---,0.00,VWS V14.01,2013-01-24 06:09:00,
2013-01-24 00:12:00,52.3,44.6,30.23,WSW,254,8.0,11.0,75,0.00,,---,0.00,VWS V14.01,2013-01-24 06:12:00,
2013-01-24 00:14:00,52.4,44.7,30.23,WSW,254,5.0,11.0,75,0.00,,---,0.00,VWS V14.01,2013-01-24 06:14:00,
2013-01-24 00:15:00,52.4,44.7,30.23,West,281,5.0,11.0,75,0.00,,---,0.00,VWS V14.01,2013-01-24 06:15:00,
2013-01-24 00:17:00,52.4,44.7,30.23,West,263,4.0,11.0,75,0.00,,---,0.00,VWS V14.01,2013-01-24 06:17:00,
2013-01-24 00:20:00,52.5,44.8,30.22,WSW,254,2.0,11.0,75,0.00,,---,0.00,VWS V14.01,2013-01-24 06:20:00,
2013-01-24 00:22:00,52.6,44.6,30.22,WSW,250,7.0,11.0,74,0.00,,---,0.00,VWS V14.01,2013-01-24 06:22:00,
2013-01-24 00:25:00,52.8,44.8,30.22,West,263,8.0,11.0,74,0.00,,---,0.00,VWS V14.01,2013-01-24 06:25:00,
2013-01-24 00:28:00,52.8,44.8,30.22,WSW,257,7.0,11.0,74,0.00,,---,0.00,VWS V14.01,2013-01-24 06:28:00,
2013-01-24 00:30:00,52.8,44.8,30.22,WSW,241,4.0,9.0,74,0.00,,---,0.00,VWS V14.01,2013-01-24 06:30:00,
2013-01-24 00:33:00,52.9,44.8,30.22,West,259,5.0,9.0,74,0.00,,---,0.00,VWS V14.01,2013-01-24 06:33:00,
2013-01-24 00:35:00,53.0,45.0,30.22,WSW,240,5.0,11.0,74,0.00,,---,0.00,VWS V14.01,2013-01-24 06:35:00,
2013-01-24 00:36:00,53.0,45.0,30.22,WSW,258,5.0,11.0,74,0.00,,---,0.00,VWS V14.01,2013-01-24 06:36:00,
2013-01-24 00:38:00,53.0,45.0,30.22,WSW,258,4.0,11.0,74,0.00,,---,0.00,VWS V14.01,2013-01-24 06:38:00,
2013-01-24 00:40:00,53.1,45.0,30.22,WNW,292,6.0,11.0,74,0.00,,---,0.00,VWS V14.01,2013-01-24 06:40:00,
2013-01-24 00:41:00,53.1,45.0,30.22,West,281,5.0,11.0,74,0.00,,---,0.00,VWS V14.01,2013-01-24 06:41:00,
2013-01-24 00:43:00,53.1,45.0,30.22,West,276,8.0,11.0,74,0.00,,---,0.00,VWS V14.01,2013-01-24 06:43:00,
2013-01-24 00:45:00,53.2,45.1,30.22,West,259,2.0,11.0,74,0.00,,---,0.00,VWS V14.01,2013-01-24 06:45:00,
2013-01-24 00:46:00,53.2,45.1,30.22,West,259,2.0,11.0,74,0.00,,---,0.00,VWS V14.01,2013-01-24 06:46:00,
2013-01-24 00:48:00,53.2,45.1,30.22,West,271,3.0,11.0,74,0.00,,---,0.00,VWS V14.01,2013-01-24 06:48:00,
2013-01-24 00:51:00,53.2,45.1,30.22,WSW,240,9.0,12.0,74,0.00,,---,0.00,VWS V14.01,2013-01-24 06:51:00,
2013-01-24 00:54:00,53.2,45.1,30.22,WSW,257,3.0,12.0,74,0.00,,---,0.00,VWS V14.01,2013-01-24 06:54:00,
2013-01-24 00:56:00,53.2,45.1,30.22,West,263,3.0,12.0,74,0.00,,---,0.00,VWS V14.01,2013-01-24 06:56:00,
2013-01-24 00:59:00,53.2,45.1,30.22,West,262,4.0,12.0,74,0.00,,---,0.00,VWS V14.01,2013-01-24 06:59:00,
2013-01-24 01:01:00,53.2,45.1,30.22,WSW,244,5.0,6.0,74,0.00,,---,0.00,VWS V14.01,2013-01-24 07:01:00,
2013-01-24 01:04:00,53.3,45.2,30.22,West,262,6.0,9.0,74,0.00,,---,0.00,VWS V14.01,2013-01-24 07:04:00,
2013-01-24 01:06:00,53.3,45.2,30.21,West,268,3.0,9.0,74,0.00,,---,0.00,VWS V14.01,2013-01-24 07:06:00,
2013-01-24 01:09:00,53.2,45.1,30.22,SW,233,4.0,9.0,74,0.00,,---,0.00,VWS V14.01,2013-01-24 07:09:00,
2013-01-24 01:11:00,53.2,45.1,30.22,SW,236,4.0,9.0,74,0.00,,---,0.00,VWS V14.01,2013-01-24 07:11:00,
2013-01-24 01:12:00,53.2,45.1,30.22,SW,235,6.0,9.0,74,0.00,,---,0.00,VWS V14.01,2013-01-24 07:12:00,
2013-01-24 01:14:00,53.1,45.0,30.21,WSW,240,4.0,9.0,74,0.00,,---,0.00,VWS V14.01,2013-01-24 07:14:00,
2013-01-24 01:16:00,53.0,45.0,30.21,SW,216,4.0,9.0,74,0.00,,---,0.00,VWS V14.01,2013-01-24 07:16:00,
2013-01-24 01:17:00,52.9,44.8,30.22,SW,216,3.0,9.0,74,0.00,,---,0.00,VWS V14.01,2013-01-24 07:17:00,
2013-01-24 01:19:00,52.8,44.8,30.22,WSW,252,3.0,9.0,74,0.00,,---,0.00,VWS V14.01,2013-01-24 07:19:00,
2013-01-24 01:21:00,52.7,44.7,30.22,WSW,242,4.0,9.0,74,0.00,,---,0.00,VWS V14.01,2013-01-24 07:21:00,
2013-01-24 01:22:00,52.6,44.6,30.21,WSW,246,4.0,9.0,74,0.00,,---,0.00,VWS V14.01,2013-01-24 07:22:00,
2013-01-24 01:24:00,52.4,44.7,30.21,WSW,258,4.0,9.0,75,0.00,,---,0.00,VWS V14.01,2013-01-24 07:24:00,
2013-01-24 01:26:00,52.3,44.6,30.21,West,265,3.0,9.0,75,0.00,,---,0.00,VWS V14.01,2013-01-24 07:26:00,
2013-01-24 01:27:00,52.3,44.6,30.21,West,259,4.0,9.0,75,0.00,,---,0.00,VWS V14.01,2013-01-24 07:27:00,
2013-01-24 01:29:00,52.1,44.8,30.21,West,270,3.0,5.0,76,0.00,,---,0.00,VWS V14.01,2013-01-24 07:29:00,
2013-01-24 01:31:00,52.1,44.8,30.21,West,262,4.0,5.0,76,0.00,,---,0.00,VWS V14.01,2013-01-24 07:31:00,
2013-01-24 01:32:00,52.0,44.7,30.21,West,266,5.0,6.0,76,0.00,,---,0.00,VWS V14.01,2013-01-24 07:32:00,
2013-01-24 01:35:00,52.0,45.0,30.21,West,275,3.0,7.0,77,0.00,,---,0.00,VWS V14.01,2013-01-24 07:35:00,
2013-01-24 01:37:00,52.0,45.0,30.21,West,267,4.0,7.0,77,0.00,,---,0.00,VWS V14.01,2013-01-24 07:37:00,
2013-01-24 01:38:00,52.0,45.0,30.21,WNW,282,4.0,7.0,77,0.00,,---,0.00,VWS V14.01,2013-01-24 07:38:00,
2013-01-24 01:40:00,52.0,45.0,30.21,West,271,2.0,7.0,77,0.00,,---,0.00,VWS V14.01,2013-01-24 07:40:00,
2013-01-24 01:42:00,52.0,45.0,30.21,West,273,4.0,7.0,77,0.00,,---,0.00,VWS V14.01,2013-01-24 07:42:00,
2013-01-24 01:43:00,52.0,45.0,30.21,West,267,4.0,7.0,77,0.00,,---,0.00,VWS V14.01,2013-01-24 07:43:00,
2013-01-24 01:45:00,51.9,44.9,30.21,West,264,3.0,7.0,77,0.00,,---,0.00,VWS V14.01,2013-01-24 07:45:00,
2013-01-24 01:47:00,51.9,44.9,30.21,West,262,3.0,7.0,77,0.00,,---,0.00,VWS V14.01,2013-01-24 07:47:00,
2013-01-24 01:48:00,51.9,44.9,30.21,West,262,1.0,7.0,77,0.00,,---,0.00,VWS V14.01,2013-01-24 07:48:00,
2013-01-24 01:50:00,51.9,44.9,30.21,WSW,251,3.0,7.0,77,0.00,,---,0.00,VWS V14.01,2013-01-24 07:50:00,
2013-01-24 01:52:00,51.9,44.9,30.21,West,263,3.0,7.0,77,0.00,,---,0.00,VWS V14.01,2013-01-24 07:52:00,
2013-01-24 01:53:00,51.9,44.9,30.21,West,262,4.0,7.0,77,0.00,,---,0.00,VWS V14.01,2013-01-24 07:53:00,
2013-01-24 01:55:00,51.8,44.8,30.21,WSW,252,3.0,7.0,77,0.00,,---,0.00,VWS V14.01,2013-01-24 07:55:00,
2013-01-24 01:57:00,51.8,45.2,30.21,WSW,252,4.0,7.0,78,0.00,,---,0.00,VWS V14.01,2013-01-24 07:57:00,
2013-01-24 01:58:00,51.8,45.2,30.21,West,266,5.0,8.0,78,0.00,,---,0.00,VWS V14.01,2013-01-24 07:58:00,
2013-01-24 02:01:00,51.8,45.2,30.21,WSW,250,5.0,6.0,78,0.00,,---,0.00,VWS V14.01,2013-01-24 08:01:00,
2013-01-24 02:02:00,51.9,45.3,30.21,SW,236,6.0,6.0,78,0.00,,---,0.00,VWS V14.01,2013-01-24 08:02:00,
2013-01-24 02:03:00,51.9,45.3,30.21,WSW,258,5.0,6.0,78,0.00,,---,0.00,VWS V14.01,2013-01-24 08:03:00,
2013-01-24 02:06:00,52.0,45.4,30.21,WSW,254,4.0,6.0,78,0.00,,---,0.00,VWS V14.01,2013-01-24 08:06:00,
2013-01-24 02:07:00,52.1,45.1,30.20,WSW,254,2.0,6.0,77,0.00,,---,0.00,VWS V14.01,2013-01-24 08:07:00,
2013-01-24 02:08:00,52.1,45.1,30.20,WSW,253,1.0,6.0,77,0.00,,---,0.00,VWS V14.01,2013-01-24 08:08:00,
2013-01-24 02:11:00,52.1,45.1,30.21,WSW,252,3.0,6.0,77,0.00,,---,0.00,VWS V14.01,2013-01-24 08:11:00,
2013-01-24 02:12:00,52.1,45.1,30.21,WSW,242,4.0,6.0,77,0.00,,---,0.00,VWS V14.01,2013-01-24 08:12:00,
2013-01-24 02:13:00,52.0,45.0,30.21,WSW,249,3.0,6.0,77,0.00,,---,0.00,VWS V14.01,2013-01-24 08:13:00,
2013-01-24 02:16:00,52.0,45.0,30.21,WSW,253,6.0,7.0,77,0.00,,---,0.00,VWS V14.01,2013-01-24 08:16:00,
2013-01-24 02:17:00,51.9,45.3,30.21,WSW,250,4.0,7.0,78,0.00,,---,0.00,VWS V14.01,2013-01-24 08:17:00,
2013-01-24 02:18:00,51.9,45.3,30.21,West,264,5.0,7.0,78,0.00,,---,0.00,VWS V14.01,2013-01-24 08:18:00,
2013-01-24 02:21:00,51.9,45.3,30.20,West,263,5.0,7.0,78,0.00,,---,0.00,VWS V14.01,2013-01-24 08:21:00,
2013-01-24 02:23:00,51.9,45.3,30.20,WSW,257,3.0,7.0,78,0.00,,---,0.00,VWS V14.01,2013-01-24 08:23:00,
2013-01-24 02:26:00,51.9,45.3,30.21,WSW,257,4.0,7.0,78,0.00,,---,0.00,VWS V14.01,2013-01-24 08:26:00,
2013-01-24 02:28:00,51.9,45.3,30.20,WSW,248,1.0,7.0,78,0.00,,---,0.00,VWS V14.01,2013-01-24 08:28:00,
2013-01-24 02:31:00,51.9,45.3,30.21,West,264,3.0,6.0,78,0.00,,---,0.00,VWS V14.01,2013-01-24 08:31:00,
2013-01-24 02:33:00,51.9,45.3,30.21,West,274,1.0,7.0,78,0.00,,---,0.00,VWS V14.01,2013-01-24 08:33:00,
2013-01-24 02:36:00,51.9,45.3,30.20,WSW,254,2.0,7.0,78,0.00,,---,0.00,VWS V14.01,2013-01-24 08:36:00,
2013-01-24 02:38:00,51.9,45.3,30.20,WSW,253,5.0,7.0,78,0.00,,---,0.00,VWS V14.01,2013-01-24 08:38:00,
2013-01-24 02:39:00,51.9,45.3,30.20,West,269,6.0,7.0,78,0.00,,---,0.00,VWS V14.01,2013-01-24 08:39:00,
2013-01-24 02:41:00,51.9,45.3,30.20,West,266,5.0,7.0,78,0.00,,---,0.00,VWS V14.01,2013-01-24 08:41:00,
2013-01-24 02:44:00,52.0,45.4,30.20,WSW,255,2.0,7.0,78,0.00,,---,0.00,VWS V14.01,2013-01-24 08:44:00,
2013-01-24 02:46:00,52.0,45.4,30.20,West,263,5.0,7.0,78,0.00,,---,0.00,VWS V14.01,2013-01-24 08:46:00,
2013-01-24 02:49:00,52.0,45.4,30.20,West,266,3.0,7.0,78,0.00,,---,0.00,VWS V14.01,2013-01-24 08:49:00,
2013-01-24 02:52:00,51.9,45.3,30.20,West,265,4.0,7.0,78,0.00,,---,0.00,VWS V14.01,2013-01-24 08:52:00,
2013-01-24 02:54:00,51.9,45.3,30.20,West,275,3.0,7.0,78,0.00,,---,0.00,VWS V14.01,2013-01-24 08:54:00,
2013-01-24 02:57:00,51.9,45.6,30.20,West,277,3.0,7.0,79,0.00,,---,0.00,VWS V14.01,2013-01-24 08:57:00,
2013-01-24 02:59:00,51.9,45.6,30.21,WNW,292,3.0,7.0,79,0.00,,---,0.00,VWS V14.01,2013-01-24 08:59:00,
2013-01-24 03:00:00,51.9,45.6,30.21,West,269,5.0,5.0,79,0.00,,---,0.00,VWS V14.01,2013-01-24 09:00:00,
2013-01-24 03:02:00,51.9,45.6,30.21,WNW,285,3.0,6.0,79,0.00,,---,0.00,VWS V14.01,2013-01-24 09:02:00,
2013-01-24 03:04:00,51.9,45.6,30.21,WNW,282,3.0,7.0,79,0.00,,---,0.00,VWS V14.01,2013-01-24 09:04:00,
2013-01-24 03:05:00,51.9,45.6,30.21,WNW,282,5.0,7.0,79,0.00,,---,0.00,VWS V14.01,2013-01-24 09:05:00,
2013-01-24 03:08:00,51.9,45.6,30.21,West,281,4.0,7.0,79,0.00,,---,0.00,VWS V14.01,2013-01-24 09:08:00,
2013-01-24 03:09:00,51.9,45.6,30.21,West,271,3.0,7.0,79,0.00,,---,0.00,VWS V14.01,2013-01-24 09:09:00,
2013-01-24 03:10:00,51.9,45.6,30.21,West,273,2.0,7.0,79,0.00,,---,0.00,VWS V14.01,2013-01-24 09:10:00,
2013-01-24 03:13:00,51.8,45.2,30.20,West,278,3.0,7.0,78,0.00,,---,0.00,VWS V14.01,2013-01-24 09:13:00,
2013-01-24 03:14:00,51.8,45.2,30.21,WNW,286,4.0,7.0,78,0.00,,---,0.00,VWS V14.01,2013-01-24 09:14:00,
2013-01-24 03:15:00,51.8,45.2,30.21,West,273,3.0,7.0,78,0.00,,---,0.00,VWS V14.01,2013-01-24 09:15:00,
2013-01-24 03:18:00,51.8,45.5,30.21,West,279,3.0,7.0,79,0.00,,---,0.00,VWS V14.01,2013-01-24 09:18:00,
2013-01-24 03:20:00,51.8,45.5,30.21,NW,306,1.0,7.0,79,0.00,,---,0.00,VWS V14.01,2013-01-24 09:20:00,
2013-01-24 03:23:00,51.8,45.5,30.21,NW,307,5.0,7.0,79,0.00,,---,0.00,VWS V14.01,2013-01-24 09:23:00,
2013-01-24 03:25:00,51.8,45.5,30.21,NW,310,5.0,7.0,79,0.00,,---,0.00,VWS V14.01,2013-01-24 09:25:00,
2013-01-24 03:26:00,51.8,45.5,30.21,NW,315,2.0,7.0,79,0.00,,---,0.00,VWS V14.01,2013-01-24 09:26:00,
2013-01-24 03:29:00,51.8,45.5,30.21,WNW,299,12.0,12.0,79,0.00,,---,0.00,VWS V14.01,2013-01-24 09:29:00,
2013-01-24 03:30:00,51.8,45.5,30.21,NW,307,4.0,7.0,79,0.00,,---,0.00,VWS V14.01,2013-01-24 09:30:00,
2013-01-24 03:31:00,51.8,45.5,30.21,WNW,302,8.0,8.0,79,0.00,,---,0.00,VWS V14.01,2013-01-24 09:31:00,
2013-01-24 03:34:00,51.8,45.5,30.21,West,270,7.0,11.0,79,0.00,,---,0.00,VWS V14.01,2013-01-24 09:34:00,
2013-01-24 03:35:00,51.8,45.5,30.21,West,273,6.0,11.0,79,0.00,,---,0.00,VWS V14.01,2013-01-24 09:35:00,
2013-01-24 03:36:00,51.8,45.5,30.21,NW,310,5.0,11.0,79,0.00,,---,0.00,VWS V14.01,2013-01-24 09:36:00,
2013-01-24 03:39:00,51.8,45.5,30.21,West,264,5.0,11.0,79,0.00,,---,0.00,VWS V14.01,2013-01-24 09:39:00,
2013-01-24 03:40:00,51.8,45.5,30.21,NW,310,4.0,11.0,79,0.00,,---,0.00,VWS V14.01,2013-01-24 09:40:00,
2013-01-24 03:41:00,51.8,45.5,30.21,West,279,4.0,11.0,79,0.00,,---,0.00,VWS V14.01,2013-01-24 09:41:00,
2013-01-24 03:44:00,51.7,45.4,30.21,WNW,282,5.0,11.0,79,0.00,,---,0.00,VWS V14.01,2013-01-24 09:44:00,
2013-01-24 03:45:00,51.8,45.5,30.21,WNW,288,3.0,11.0,79,0.00,,---,0.00,VWS V14.01,2013-01-24 09:45:00,
2013-01-24 03:46:00,51.7,45.4,30.21,NW,316,4.0,11.0,79,0.00,,---,0.00,VWS V14.01,2013-01-24 09:46:00,
2013-01-24 03:49:00,51.7,45.4,30.21,West,271,4.0,11.0,79,0.00,,---,0.00,VWS V14.01,2013-01-24 09:49:00,
2013-01-24 03:50:00,51.7,45.4,30.21,West,277,4.0,11.0,79,0.00,,---,0.00,VWS V14.01,2013-01-24 09:50:00,
2013-01-24 03:52:00,51.7,45.4,30.21,West,276,5.0,11.0,79,0.00,,---,0.00,VWS V14.01,2013-01-24 09:52:00,
2013-01-24 03:54:00,51.7,45.4,30.21,NW,308,4.0,11.0,79,0.00,,---,0.00,VWS V14.01,2013-01-24 09:54:00,
2013-01-24 03:55:00,51.7,45.4,30.21,WNW,297,2.0,11.0,79,0.00,,---,0.00,VWS V14.01,2013-01-24 09:55:00,
2013-01-24 03:57:00,51.7,45.4,30.21,WNW,297,5.0,11.0,79,0.00,,---,0.00,VWS V14.01,2013-01-24 09:57:00,
2013-01-24 03:59:00,51.6,45.3,30.21,West,273,2.0,3.0,79,0.00,,---,0.00,VWS V14.01,2013-01-24 09:59:00,
2013-01-24 04:00:00,51.6,45.3,30.21,WNW,299,4.0,5.0,79,0.00,,---,0.00,VWS V14.01,2013-01-24 10:00:00,
2013-01-24 04:01:00,51.6,45.3,30.21,WNW,284,4.0,5.0,79,0.00,,---,0.00,VWS V14.01,2013-01-24 10:01:00,
2013-01-24 04:02:00,51.6,45.3,30.21,West,281,3.0,5.0,79,0.00,,---,0.00,VWS V14.01,2013-01-24 10:02:00,
2013-01-24 04:04:00,51.5,45.5,30.21,West,275,7.0,8.0,80,0.00,,---,0.00,VWS V14.01,2013-01-24 10:04:00,
2013-01-24 04:05:00,51.5,45.5,30.21,WNW,290,4.0,8.0,80,0.00,,---,0.00,VWS V14.01,2013-01-24 10:05:00,
2013-01-24 04:06:00,51.5,45.2,30.21,WNW,292,4.0,8.0,79,0.00,,---,0.00,VWS V14.01,2013-01-24 10:06:00,
2013-01-24 04:07:00,51.5,45.2,30.21,WNW,302,2.0,8.0,79,0.00,,---,0.00,VWS V14.01,2013-01-24 10:07:00,
2013-01-24 04:09:00,51.4,45.1,30.21,WNW,294,4.0,8.0,79,0.00,,---,0.00,VWS V14.01,2013-01-24 10:09:00,
2013-01-24 04:10:00,51.4,45.1,30.21,West,279,3.0,8.0,79,0.00,,---,0.00,VWS V14.01,2013-01-24 10:10:00,
2013-01-24 04:11:00,51.4,45.1,30.21,West,273,4.0,8.0,79,0.00,,---,0.00,VWS V14.01,2013-01-24 10:11:00,
2013-01-24 04:12:00,51.3,45.0,30.21,NW,315,5.0,8.0,79,0.00,,---,0.00,VWS V14.01,2013-01-24 10:12:00,
2013-01-24 04:14:00,51.3,45.0,30.21,West,280,4.0,8.0,79,0.00,,---,0.00,VWS V14.01,2013-01-24 10:14:00,
2013-01-24 04:16:00,51.3,45.0,30.21,WNW,286,3.0,8.0,79,0.00,,---,0.00,VWS V14.01,2013-01-24 10:16:00,
2013-01-24 04:17:00,51.2,45.2,30.21,West,280,6.0,8.0,80,0.00,,---,0.00,VWS V14.01,2013-01-24 10:17:00,
2013-01-24 04:20:00,51.1,45.2,30.21,West,273,5.0,8.0,80,0.00,,---,0.00,VWS V14.01,2013-01-24 10:20:00,
2013-01-24 04:21:00,51.1,45.2,30.21,West,259,2.0,8.0,80,0.00,,---,0.00,VWS V14.01,2013-01-24 10:21:00,
2013-01-24 04:22:00,51.1,45.2,30.21,West,267,3.0,8.0,80,0.00,,---,0.00,VWS V14.01,2013-01-24 10:22:00,
2013-01-24 04:25:00,51.0,45.1,30.21,WNW,297,4.0,8.0,80,0.00,,---,0.00,VWS V14.01,2013-01-24 10:25:00,
2013-01-24 04:26:00,51.0,45.1,30.21,WNW,297,3.0,8.0,80,0.00,,---,0.00,VWS V14.01,2013-01-24 10:26:00,
2013-01-24 04:27:00,51.0,45.1,30.21,WSW,257,3.0,8.0,80,0.00,,---,0.00,VWS V14.01,2013-01-24 10:27:00,
2013-01-24 04:30:00,50.9,45.0,30.21,WNW,286,2.0,5.0,80,0.00,,---,0.00,VWS V14.01,2013-01-24 10:30:00,
2013-01-24 04:31:00,50.9,45.0,30.21,West,271,2.0,5.0,80,0.00,,---,0.00,VWS V14.01,2013-01-24 10:31:00,
2013-01-24 04:32:00,50.9,45.0,30.21,WSW,257,3.0,5.0,80,0.00,,---,0.00,VWS V14.01,2013-01-24 10:32:00,
2013-01-24 04:35:00,50.8,44.9,30.21,West,271,3.0,6.0,80,0.00,,---,0.00,VWS V14.01,2013-01-24 10:35:00,
2013-01-24 04:36:00,50.7,44.8,30.21,West,268,4.0,6.0,80,0.00,,---,0.00,VWS V14.01,2013-01-24 10:36:00,
2013-01-24 04:37:00,50.7,44.8,30.21,West,269,4.0,6.0,80,0.00,,---,0.00,VWS V14.01,2013-01-24 10:37:00,
2013-01-24 04:40:00,50.6,45.0,30.21,West,271,4.0,8.0,81,0.00,,---,0.00,VWS V14.01,2013-01-24 10:40:00,
2013-01-24 04:41:00,50.6,45.0,30.21,West,259,3.0,8.0,81,0.00,,---,0.00,VWS V14.01,2013-01-24 10:41:00,
2013-01-24 04:42:00,50.6,45.0,30.21,West,259,2.0,8.0,81,0.00,,---,0.00,VWS V14.01,2013-01-24 10:42:00,
2013-01-24 04:46:00,50.5,44.9,30.21,West,275,4.0,8.0,81,0.00,,---,0.00,VWS V14.01,2013-01-24 10:46:00,
2013-01-24 04:47:00,50.5,44.9,30.22,West,269,3.0,8.0,81,0.00,,---,0.00,VWS V14.01,2013-01-24 10:47:00,
2013-01-24 04:51:00,50.5,44.9,30.22,West,281,2.0,8.0,81,0.00,,---,0.00,VWS V14.01,2013-01-24 10:51:00,
2013-01-24 04:52:00,50.5,44.9,30.22,WNW,284,2.0,8.0,81,0.00,,---,0.00,VWS V14.01,2013-01-24 10:52:00,
2013-01-24 04:53:00,50.5,44.9,30.22,West,272,3.0,8.0,81,0.00,,---,0.00,VWS V14.01,2013-01-24 10:53:00,
2013-01-24 04:56:00,50.4,44.8,30.22,WNW,286,4.0,8.0,81,0.00,,---,0.00,VWS V14.01,2013-01-24 10:56:00,
2013-01-24 04:57:00,50.4,44.8,30.22,WNW,286,2.0,8.0,81,0.00,,---,0.00,VWS V14.01,2013-01-24 10:57:00,
2013-01-24 04:58:00,50.4,44.8,30.22,WNW,286,0.0,8.0,81,0.00,,---,0.00,VWS V14.01,2013-01-24 10:58:00,
2013-01-24 05:01:00,50.4,44.8,30.22,WNW,294,2.0,4.0,81,0.00,,---,0.00,VWS V14.01,2013-01-24 11:01:00,
2013-01-24 05:02:00,50.4,44.8,30.22,West,267,3.0,5.0,81,0.00,,---,0.00,VWS V14.01,2013-01-24 11:02:00,
2013-01-24 05:03:00,50.4,44.8,30.22,West,267,3.0,5.0,81,0.00,,---,0.00,VWS V14.01,2013-01-24 11:03:00,
2013-01-24 05:06:00,50.3,44.7,30.22,West,277,1.0,5.0,81,0.00,,---,0.00,VWS V14.01,2013-01-24 11:06:00,
2013-01-24 05:07:00,50.3,44.7,30.22,West,279,4.0,5.0,81,0.00,,---,0.00,VWS V14.01,2013-01-24 11:07:00,
2013-01-24 05:08:00,50.3,44.7,30.22,West,274,2.0,5.0,81,0.00,,---,0.00,VWS V14.01,2013-01-24 11:08:00,
2013-01-24 05:12:00,50.3,44.7,30.22,WNW,282,2.0,5.0,81,0.00,,---,0.00,VWS V14.01,2013-01-24 11:12:00,
2013-01-24 05:13:00,50.3,44.7,30.22,West,281,3.0,5.0,81,0.00,,---,0.00,VWS V14.01,2013-01-24 11:13:00,
2013-01-24 05:17:00,50.2,44.6,30.22,West,269,2.0,5.0,81,0.00,,---,0.00,VWS V14.01,2013-01-24 11:17:00,
2013-01-24 05:18:00,50.2,44.6,30.22,West,269,3.0,5.0,81,0.00,,---,0.00,VWS V14.01,2013-01-24 11:18:00,
2013-01-24 05:22:00,50.1,44.5,30.22,West,281,0.0,5.0,81,0.00,,---,0.00,VWS V14.01,2013-01-24 11:22:00,
2013-01-24 05:23:00,50.1,44.5,30.22,WNW,292,2.0,5.0,81,0.00,,---,0.00,VWS V14.01,2013-01-24 11:23:00,
2013-01-24 05:27:00,50.1,44.5,30.23,West,275,2.0,5.0,81,0.00,,---,0.00,VWS V14.01,2013-01-24 11:27:00,
2013-01-24 05:28:00,50.1,44.8,30.23,WNW,288,3.0,5.0,82,0.00,,---,0.00,VWS V14.01,2013-01-24 11:28:00,
2013-01-24 05:32:00,50.0,44.7,30.23,West,277,3.0,4.0,82,0.00,,---,0.00,VWS V14.01,2013-01-24 11:32:00,
2013-01-24 05:33:00,50.0,44.7,30.23,WNW,284,3.0,4.0,82,0.00,,---,0.00,VWS V14.01,2013-01-24 11:33:00,
2013-01-24 05:37:00,50.0,44.7,30.24,WNW,302,4.0,6.0,82,0.00,,---,0.00,VWS V14.01,2013-01-24 11:37:00,
2013-01-24 05:38:00,50.0,44.7,30.24,WNW,302,3.0,6.0,82,0.00,,---,0.00,VWS V14.01,2013-01-24 11:38:00,
2013-01-24 05:39:00,50.0,44.7,30.24,NW,311,2.0,6.0,82,0.00,,---,0.00,VWS V14.01,2013-01-24 11:39:00,
2013-01-24 05:42:00,49.9,44.3,30.24,NNW,340,6.0,7.0,81,0.00,,---,0.00,VWS V14.01,2013-01-24 11:42:00,
2013-01-24 05:43:00,49.9,44.3,30.24,NW,314,2.0,7.0,81,0.00,,---,0.00,VWS V14.01,2013-01-24 11:43:00,
2013-01-24 05:44:00,49.9,44.3,30.24,NNW,333,7.0,10.0,81,0.00,,---,0.00,VWS V14.01,2013-01-24 11:44:00,
2013-01-24 05:47:00,50.0,44.1,30.24,NNW,348,8.0,14.0,80,0.00,,---,0.00,VWS V14.01,2013-01-24 11:47:00,
2013-01-24 05:48:00,50.0,44.1,30.24,NW,312,6.0,14.0,80,0.00,,---,0.00,VWS V14.01,2013-01-24 11:48:00,
2013-01-24 05:50:00,50.1,43.8,30.24,NW,321,4.0,14.0,79,0.00,,---,0.00,VWS V14.01,2013-01-24 11:50:00,
2013-01-24 05:52:00,50.1,43.8,30.24,NNW,327,9.0,14.0,79,0.00,,---,0.00,VWS V14.01,2013-01-24 11:52:00,
2013-01-24 05:53:00,50.1,43.8,30.24,WNW,299,11.0,14.0,79,0.00,,---,0.00,VWS V14.01,2013-01-24 11:53:00,
2013-01-24 05:55:00,50.1,43.5,30.24,NW,322,6.0,14.0,78,0.00,,---,0.00,VWS V14.01,2013-01-24 11:55:00,
2013-01-24 05:58:00,50.2,43.6,30.24,NNW,333,6.0,14.0,78,0.00,,---,0.00,VWS V14.01,2013-01-24 11:58:00,
2013-01-24 05:59:00,50.2,43.3,30.24,NNW,333,9.0,14.0,77,0.00,,---,0.00,VWS V14.01,2013-01-24 11:59:00,
2013-01-24 06:00:00,50.2,43.3,30.24,NNW,336,7.0,9.0,77,0.00,,---,0.00,VWS V14.01,2013-01-24 12:00:00,
2013-01-24 06:03:00,50.2,43.3,30.24,NNW,338,3.0,10.0,77,0.00,,---,0.00,VWS V14.01,2013-01-24 12:03:00,
2013-01-24 06:04:00,50.2,43.3,30.24,NNW,331,3.0,10.0,77,0.00,,---,0.00,VWS V14.01,2013-01-24 12:04:00,
2013-01-24 06:05:00,50.2,43.3,30.24,NNW,344,3.0,10.0,77,0.00,,---,0.00,VWS V14.01,2013-01-24 12:05:00,
2013-01-24 06:08:00,50.1,43.2,30.24,NNW,331,6.0,10.0,77,0.00,,---,0.00,VWS V14.01,2013-01-24 12:08:00,
2013-01-24 06:09:00,50.1,43.2,30.25,NNW,337,3.0,10.0,77,0.00,,---,0.00,VWS V14.01,2013-01-24 12:09:00,
2013-01-24 06:10:00,50.1,43.2,30.25,NNW,348,4.0,10.0,77,0.00,,---,0.00,VWS V14.01,2013-01-24 12:10:00,
2013-01-24 06:13:00,50.1,43.2,30.25,NNW,340,6.0,10.0,77,0.00,,---,0.00,VWS V14.01,2013-01-24 12:13:00,
2013-01-24 06:14:00,50.1,43.2,30.25,NNW,333,7.0,10.0,77,0.00,,---,0.00,VWS V14.01,2013-01-24 12:14:00,
2013-01-24 06:15:00,50.0,43.1,30.24,North,350,3.0,10.0,77,0.00,,---,0.00,VWS V14.01,2013-01-24 12:15:00,
2013-01-24 06:18:00,50.0,43.1,30.25,NNW,346,4.0,10.0,77,0.00,,---,0.00,VWS V14.01,2013-01-24 12:18:00,
2013-01-24 06:19:00,50.0,43.1,30.25,North,349,4.0,10.0,77,0.00,,---,0.00,VWS V14.01,2013-01-24 12:19:00,
2013-01-24 06:21:00,49.9,42.7,30.24,North,5,6.0,10.0,76,0.00,,---,0.00,VWS V14.01,2013-01-24 12:21:00,
2013-01-24 06:24:00,49.9,42.7,30.24,NNW,342,5.0,10.0,76,0.00,,---,0.00,VWS V14.01,2013-01-24 12:24:00,
2013-01-24 06:26:00,49.8,42.5,30.24,NW,316,2.0,10.0,76,0.00,,---,0.00,VWS V14.01,2013-01-24 12:26:00,
2013-01-24 06:29:00,49.7,42.8,30.24,North,5,5.0,10.0,77,0.00,,---,0.00,VWS V14.01,2013-01-24 12:29:00,
2013-01-24 06:31:00,49.6,42.7,30.24,NNW,332,5.0,8.0,77,0.00,,---,0.00,VWS V14.01,2013-01-24 12:31:00,
2013-01-24 06:34:00,49.6,42.7,30.25,NNW,342,3.0,8.0,77,0.00,,---,0.00,VWS V14.01,2013-01-24 12:34:00,
2013-01-24 06:35:00,49.6,42.7,30.25,NNW,348,3.0,8.0,77,0.00,,---,0.00,VWS V14.01,2013-01-24 12:35:00,
2013-01-24 06:36:00,49.5,42.6,30.25,NW,326,3.0,8.0,77,0.00,,---,0.00,VWS V14.01,2013-01-24 12:36:00,
2013-01-24 06:39:00,49.4,42.5,30.26,NNW,328,4.0,8.0,77,0.00,,---,0.00,VWS V14.01,2013-01-24 12:39:00,
2013-01-24 06:41:00,49.4,42.5,30.26,NNW,327,3.0,8.0,77,0.00,,---,0.00,VWS V14.01,2013-01-24 12:41:00,
2013-01-24 06:44:00,49.3,42.4,30.26,NNW,348,6.0,8.0,77,0.00,,---,0.00,VWS V14.01,2013-01-24 12:44:00,
2013-01-24 06:46:00,49.3,42.4,30.26,North,360,4.0,8.0,77,0.00,,---,0.00,VWS V14.01,2013-01-24 12:46:00,
2013-01-24 06:49:00,49.2,42.6,30.26,NNW,329,2.0,8.0,78,0.00,,---,0.00,VWS V14.01,2013-01-24 12:49:00,
2013-01-24 06:50:00,49.2,42.3,30.26,NNW,336,4.0,8.0,77,0.00,,---,0.00,VWS V14.01,2013-01-24 12:50:00,
2013-01-24 06:51:00,49.2,42.3,30.26,NNW,331,3.0,8.0,77,0.00,,---,0.00,VWS V14.01,2013-01-24 12:51:00,
2013-01-24 06:54:00,49.2,42.6,30.26,NNW,336,4.0,8.0,78,0.00,,---,0.00,VWS V14.01,2013-01-24 12:54:00,
2013-01-24 06:55:00,49.1,42.5,30.26,NNW,334,0.0,8.0,78,0.00,,---,0.00,VWS V14.01,2013-01-24 12:55:00,
2013-01-24 06:56:00,49.1,42.5,30.26,NNW,334,1.0,8.0,78,0.00,,---,0.00,VWS V14.01,2013-01-24 12:56:00,
2013-01-24 07:00:00,49.0,42.1,30.26,NNW,331,4.0,5.0,77,0.00,,---,0.00,VWS V14.01,2013-01-24 13:00:00,
2013-01-24 07:01:00,49.0,42.1,30.26,NNW,327,3.0,6.0,77,0.00,,---,0.00,VWS V14.01,2013-01-24 13:01:00,
2013-01-24 07:05:00,48.9,42.0,30.26,North,350,3.0,6.0,77,0.00,,---,0.00,VWS V14.01,2013-01-24 13:05:00,
2013-01-24 07:06:00,48.8,41.9,30.26,North,350,6.0,6.0,77,0.00,,---,0.00,VWS V14.01,2013-01-24 13:06:00,
2013-01-24 07:10:00,48.7,41.8,30.26,NNW,328,4.0,6.0,77,0.00,,---,0.00,VWS V14.01,2013-01-24 13:10:00,
2013-01-24 07:11:00,48.7,41.8,30.26,North,350,6.0,7.0,77,0.00,,---,0.00,VWS V14.01,2013-01-24 13:11:00,
2013-01-24 07:12:00,48.7,41.8,30.26,NNW,335,5.0,7.0,77,0.00,,---,0.00,VWS V14.01,2013-01-24 13:12:00,
2013-01-24 07:15:00,48.6,41.7,30.26,North,360,6.0,7.0,77,0.00,,---,0.00,VWS V14.01,2013-01-24 13:15:00,
2013-01-24 07:16:00,48.6,41.7,30.26,NNW,346,3.0,7.0,77,0.00,,---,0.00,VWS V14.01,2013-01-24 13:16:00,
2013-01-24 07:17:00,48.5,41.6,30.26,NNW,341,6.0,7.0,77,0.00,,---,0.00,VWS V14.01,2013-01-24 13:17:00,
2013-01-24 07:20:00,48.5,41.6,30.26,NNW,338,6.0,7.0,77,0.00,,---,0.00,VWS V14.01,2013-01-24 13:20:00,
2013-01-24 07:21:00,48.4,41.5,30.26,NNW,341,6.0,7.0,77,0.00,,---,0.00,VWS V14.01,2013-01-24 13:21:00,
2013-01-24 07:22:00,48.4,41.5,30.27,NNW,336,6.0,7.0,77,0.00,,---,0.00,VWS V14.01,2013-01-24 13:22:00,
2013-01-24 07:25:00,48.3,41.8,30.27,NNW,333,4.0,7.0,78,0.00,,---,0.00,VWS V14.01,2013-01-24 13:25:00,
2013-01-24 07:26:00,48.3,41.8,30.27,North,350,5.0,7.0,78,0.00,,---,0.00,VWS V14.01,2013-01-24 13:26:00,
2013-01-24 07:27:00,48.3,41.8,30.26,NNW,335,5.0,7.0,78,0.00,,---,0.00,VWS V14.01,2013-01-24 13:27:00,
2013-01-24 07:31:00,48.3,41.8,30.27,NNW,343,5.0,7.0,78,0.00,,---,0.00,VWS V14.01,2013-01-24 13:31:00,
2013-01-24 07:32:00,48.3,41.8,30.27,NW,306,4.0,7.0,78,0.00,,---,0.00,VWS V14.01,2013-01-24 13:32:00,
2013-01-24 07:33:00,48.3,41.8,30.27,NNW,338,2.0,7.0,78,0.00,,---,0.00,VWS V14.01,2013-01-24 13:33:00,
2013-01-24 07:36:00,48.3,41.4,30.27,NNW,338,4.0,7.0,77,0.00,,---,0.00,VWS V14.01,2013-01-24 13:36:00,
2013-01-24 07:37:00,48.4,41.5,30.27,NNW,339,4.0,7.0,77,0.00,,---,0.00,VWS V14.01,2013-01-24 13:37:00,
2013-01-24 07:38:00,48.4,41.5,30.27,NNW,338,5.0,7.0,77,0.00,,---,0.00,VWS V14.01,2013-01-24 13:38:00,
2013-01-24 07:41:00,48.4,41.5,30.28,NNW,344,3.0,7.0,77,0.00,,---,0.00,VWS V14.01,2013-01-24 13:41:00,
2013-01-24 07:42:00,48.4,41.5,30.27,NNW,344,2.0,7.0,77,0.00,,---,0.00,VWS V14.01,2013-01-24 13:42:00,
2013-01-24 07:43:00,48.4,41.5,30.27,NNW,346,4.0,7.0,77,0.00,,---,0.00,VWS V14.01,2013-01-24 13:43:00,
2013-01-24 07:46:00,48.5,41.3,30.28,NW,319,6.0,13.0,76,0.00,,---,0.00,VWS V14.01,2013-01-24 13:46:00,
2013-01-24 07:47:00,48.5,41.3,30.27,NNW,344,5.0,13.0,76,0.00,,---,0.00,VWS V14.01,2013-01-24 13:47:00,
2013-01-24 07:48:00,48.5,41.0,30.27,North,11,7.0,13.0,75,0.00,,---,0.00,VWS V14.01,2013-01-24 13:48:00,
2013-01-24 07:51:00,48.5,41.0,30.28,NW,321,7.0,13.0,75,0.00,,---,0.00,VWS V14.01,2013-01-24 13:51:00,
2013-01-24 07:53:00,48.5,41.0,30.28,NW,308,5.0,13.0,75,0.00,,---,0.00,VWS V14.01,2013-01-24 13:53:00,
2013-01-24 07:56:00,48.5,40.6,30.28,North,355,5.0,13.0,74,0.00,,---,0.00,VWS V14.01,2013-01-24 13:56:00,
2013-01-24 07:58:00,48.6,40.7,30.28,NW,325,4.0,13.0,74,0.00,,---,0.00,VWS V14.01,2013-01-24 13:58:00,
2013-01-24 08:01:00,48.6,40.7,30.29,North,350,4.0,6.0,74,0.00,,---,0.00,VWS V14.01,2013-01-24 14:01:00,
2013-01-24 08:03:00,48.7,40.8,30.29,NNW,336,5.0,8.0,74,0.00,,---,0.00,VWS V14.01,2013-01-24 14:03:00,
2013-01-24 08:07:00,48.7,40.1,30.29,NW,323,12.0,13.0,72,0.00,,---,0.00,VWS V14.01,2013-01-24 14:07:00,
2013-01-24 08:08:00,48.7,40.1,30.29,NNW,339,9.0,14.0,72,0.00,,---,0.00,VWS V14.01,2013-01-24 14:08:00,
2013-01-24 08:12:00,48.6,40.0,30.29,NW,324,11.0,15.0,72,0.00,,---,0.00,VWS V14.01,2013-01-24 14:12:00,
2013-01-24 08:13:00,48.6,40.0,30.29,NNW,331,9.0,15.0,72,0.00,,---,0.00,VWS V14.01,2013-01-24 14:13:00,
2013-01-24 08:17:00,48.6,40.0,30.29,NNW,335,7.0,15.0,72,0.00,,---,0.00,VWS V14.01,2013-01-24 14:17:00,
2013-01-24 08:18:00,48.6,40.0,30.29,NNW,348,8.0,15.0,72,0.00,,---,0.00,VWS V14.01,2013-01-24 14:18:00,
2013-01-24 08:19:00,48.6,40.0,30.29,NNE,16,8.0,15.0,72,0.00,,---,0.00,VWS V14.01,2013-01-24 14:19:00,
2013-01-24 08:22:00,48.6,40.0,30.29,NW,322,7.0,15.0,72,0.00,,---,0.00,VWS V14.01,2013-01-24 14:22:00,
2013-01-24 08:23:00,48.6,40.0,30.29,NNW,342,4.0,15.0,72,0.00,,---,0.00,VWS V14.01,2013-01-24 14:23:00,
2013-01-24 08:24:00,48.6,40.0,30.29,NNW,327,3.0,15.0,72,0.00,,---,0.00,VWS V14.01,2013-01-24 14:24:00,
2013-01-24 08:27:00,48.7,40.1,30.30,North,355,7.0,15.0,72,0.00,,---,0.00,VWS V14.01,2013-01-24 14:27:00,
2013-01-24 08:28:00,48.7,40.1,30.30,NNW,340,7.0,15.0,72,0.00,,---,0.00,VWS V14.01,2013-01-24 14:28:00,
2013-01-24 08:29:00,48.7,40.1,30.30,NW,326,8.0,15.0,72,0.00,,---,0.00,VWS V14.01,2013-01-24 14:29:00,
2013-01-24 08:33:00,48.8,40.2,30.30,NNW,333,4.0,11.0,72,0.00,,---,0.00,VWS V14.01,2013-01-24 14:33:00,
2013-01-24 08:34:00,48.8,39.8,30.30,NNW,333,10.0,11.0,71,0.00,,---,0.00,VWS V14.01,2013-01-24 14:34:00,
2013-01-24 08:38:00,48.9,39.9,30.30,North,355,8.0,11.0,71,0.00,,---,0.00,VWS V14.01,2013-01-24 14:38:00,
2013-01-24 08:39:00,48.9,39.9,30.30,NNW,341,10.0,11.0,71,0.00,,---,0.00,VWS V14.01,2013-01-24 14:39:00,
2013-01-24 08:43:00,49.0,40.0,30.30,North,350,5.0,12.0,71,0.00,,---,0.00,VWS V14.01,2013-01-24 14:43:00,
2013-01-24 08:44:00,48.9,39.9,30.30,NW,314,5.0,12.0,71,0.00,,---,0.00,VWS V14.01,2013-01-24 14:44:00,
2013-01-24 08:48:00,49.0,40.0,30.30,NNW,336,8.0,12.0,71,0.00,,---,0.00,VWS V14.01,2013-01-24 14:48:00,
2013-01-24 08:49:00,49.0,40.0,30.30,North,5,5.0,12.0,71,0.00,,---,0.00,VWS V14.01,2013-01-24 14:49:00,
2013-01-24 08:53:00,49.1,40.1,30.30,NW,323,9.0,12.0,71,0.00,,---,0.00,VWS V14.01,2013-01-24 14:53:00,
2013-01-24 08:54:00,49.1,40.1,30.30,NW,308,8.0,12.0,71,0.00,,---,0.00,VWS V14.01,2013-01-24 14:54:00,
2013-01-24 08:58:00,49.2,39.8,30.31,North,355,7.0,12.0,70,0.00,,---,0.00,VWS V14.01,2013-01-24 14:58:00,
2013-01-24 08:59:00,49.2,39.8,30.31,North,355,4.0,5.0,70,0.00,,---,0.00,VWS V14.01,2013-01-24 14:59:00,
2013-01-24 09:00:00,49.3,39.9,30.31,NNW,334,9.0,10.0,70,0.00,,---,0.00,VWS V14.01,2013-01-24 15:00:00,
2013-01-24 09:04:00,49.4,39.7,30.31,North,355,7.0,10.0,69,0.00,,---,0.00,VWS V14.01,2013-01-24 15:04:00,
2013-01-24 09:05:00,49.4,39.7,30.31,West,281,9.0,12.0,69,0.00,,---,0.00,VWS V14.01,2013-01-24 15:05:00,
2013-01-24 09:09:00,49.5,39.8,30.31,North,355,5.0,12.0,69,0.00,,---,0.00,VWS V14.01,2013-01-24 15:09:00,
2013-01-24 09:10:00,49.5,39.8,30.31,NNW,347,6.0,12.0,69,0.00,,---,0.00,VWS V14.01,2013-01-24 15:10:00,
2013-01-24 09:14:00,49.7,39.6,30.31,NNW,346,3.0,12.0,68,0.00,,---,0.00,VWS V14.01,2013-01-24 15:14:00,
2013-01-24 09:15:00,49.7,39.6,30.32,NNW,333,5.0,12.0,68,0.00,,---,0.00,VWS V14.01,2013-01-24 15:15:00,
2013-01-24 09:19:00,49.8,39.7,30.32,North,355,4.0,12.0,68,0.00,,---,0.00,VWS V14.01,2013-01-24 15:19:00,
2013-01-24 09:20:00,49.8,39.3,30.32,NNW,329,4.0,12.0,67,0.00,,---,0.00,VWS V14.01,2013-01-24 15:20:00,
2013-01-24 09:24:00,49.9,39.8,30.32,NW,323,6.0,12.0,68,0.00,,---,0.00,VWS V14.01,2013-01-24 15:24:00,
2013-01-24 09:25:00,50.0,39.9,30.32,NNE,30,7.0,12.0,68,0.00,,---,0.00,VWS V14.01,2013-01-24 15:25:00,
2013-01-24 09:26:00,50.0,39.9,30.32,WNW,290,8.0,12.0,68,0.00,,---,0.00,VWS V14.01,2013-01-24 15:26:00,
2013-01-24 09:29:00,50.1,39.6,30.33,NNW,335,6.0,12.0,67,0.00,,---,0.00,VWS V14.01,2013-01-24 15:29:00,
2013-01-24 09:30:00,50.1,39.6,30.33,NW,315,8.0,12.0,67,0.00,,---,0.00,VWS V14.01,2013-01-24 15:30:00,
2013-01-24 09:31:00,50.1,39.2,30.33,NW,325,10.0,12.0,66,0.00,,---,0.00,VWS V14.01,2013-01-24 15:31:00,
2013-01-24 09:34:00,50.0,39.1,30.33,NNW,348,4.0,12.0,66,0.00,,---,0.00,VWS V14.01,2013-01-24 15:34:00,
2013-01-24 09:35:00,50.0,39.1,30.33,North,360,3.0,12.0,66,0.00,,---,0.00,VWS V14.01,2013-01-24 15:35:00,
2013-01-24 09:36:00,50.1,39.2,30.33,NNW,333,6.0,12.0,66,0.00,,---,0.00,VWS V14.01,2013-01-24 15:36:00,
2013-01-24 09:37:00,50.1,39.2,30.33,NNW,343,4.0,12.0,66,0.00,,---,0.00,VWS V14.01,2013-01-24 15:37:00,
2013-01-24 09:39:00,50.3,39.4,30.33,NNW,344,6.0,12.0,66,0.00,,---,0.00,VWS V14.01,2013-01-24 15:39:00,
2013-01-24 09:40:00,50.4,39.1,30.33,NNW,343,5.0,12.0,65,0.00,,---,0.00,VWS V14.01,2013-01-24 15:40:00,
2013-01-24 09:41:00,50.6,38.9,30.33,North,360,9.0,12.0,64,0.00,,---,0.00,VWS V14.01,2013-01-24 15:41:00,
2013-01-24 09:42:00,50.6,38.9,30.33,North,355,12.0,12.0,64,0.00,,---,0.00,VWS V14.01,2013-01-24 15:42:00,
2013-01-24 09:44:00,50.9,38.0,30.33,NNW,333,10.0,13.0,61,0.00,,---,0.00,VWS V14.01,2013-01-24 15:44:00,
2013-01-24 09:46:00,51.0,38.0,30.33,NNW,338,3.0,13.0,61,0.00,,---,0.00,VWS V14.01,2013-01-24 15:46:00,
2013-01-24 09:47:00,51.0,38.0,30.33,NW,323,6.0,13.0,61,0.00,,---,0.00,VWS V14.01,2013-01-24 15:47:00,
2013-01-24 09:50:00,51.2,37.4,30.33,NW,323,8.0,13.0,59,0.00,,---,0.00,VWS V14.01,2013-01-24 15:50:00,
2013-01-24 09:51:00,51.3,37.5,30.33,NNE,13,11.0,13.0,59,0.00,,---,0.00,VWS V14.01,2013-01-24 15:51:00,
2013-01-24 09:52:00,51.3,37.5,30.33,North,355,8.0,13.0,59,0.00,,---,0.00,VWS V14.01,2013-01-24 15:52:00,
2013-01-24 09:55:00,51.5,37.7,30.33,North,355,8.0,13.0,59,0.00,,---,0.00,VWS V14.01,2013-01-24 15:55:00,
2013-01-24 09:56:00,51.5,37.7,30.33,NW,323,3.0,13.0,59,0.00,,---,0.00,VWS V14.01,2013-01-24 15:56:00,
2013-01-24 09:57:00,51.6,37.8,30.33,NNW,333,5.0,13.0,59,0.00,,---,0.00,VWS V14.01,2013-01-24 15:57:00,
2013-01-24 10:00:00,51.9,37.2,30.33,NNW,329,6.0,9.0,57,0.00,,---,0.00,VWS V14.01,2013-01-24 16:00:00,
2013-01-24 10:01:00,52.0,37.2,30.33,NNW,336,13.0,13.0,57,0.00,,---,0.00,VWS V14.01,2013-01-24 16:01:00,
2013-01-24 10:02:00,52.0,36.3,30.33,NNW,331,9.0,13.0,55,0.00,,---,0.00,VWS V14.01,2013-01-24 16:02:00,
2013-01-24 10:05:00,52.0,35.9,30.33,NNW,343,9.0,14.0,54,0.00,,---,0.00,VWS V14.01,2013-01-24 16:05:00,
2013-01-24 10:06:00,52.0,35.9,30.33,NNW,329,10.0,14.0,54,0.00,,---,0.00,VWS V14.01,2013-01-24 16:06:00,
2013-01-24 10:07:00,52.0,35.9,30.33,NNW,339,6.0,14.0,54,0.00,,---,0.00,VWS V14.01,2013-01-24 16:07:00,
2013-01-24 10:10:00,52.3,36.2,30.33,NNW,329,9.0,14.0,54,0.00,,---,0.00,VWS V14.01,2013-01-24 16:10:00,
2013-01-24 10:11:00,52.3,36.2,30.33,NNW,340,10.0,14.0,54,0.00,,---,0.00,VWS V14.01,2013-01-24 16:11:00,
2013-01-24 10:12:00,52.4,35.3,30.33,North,350,11.0,14.0,52,0.00,,---,0.00,VWS V14.01,2013-01-24 16:12:00,
2013-01-24 10:13:00,52.4,35.3,30.33,NNW,337,9.0,14.0,52,0.00,,---,0.00,VWS V14.01,2013-01-24 16:13:00,
2013-01-24 10:15:00,52.5,34.9,30.33,North,355,5.0,15.0,51,0.00,,---,0.00,VWS V14.01,2013-01-24 16:15:00,
2013-01-24 10:17:00,52.5,35.4,30.33,NW,320,3.0,15.0,52,0.00,,---,0.00,VWS V14.01,2013-01-24 16:17:00,
2013-01-24 10:18:00,52.6,35.0,30.33,NNE,13,6.0,15.0,51,0.00,,---,0.00,VWS V14.01,2013-01-24 16:18:00,
2013-01-24 10:20:00,52.6,35.0,30.33,North,349,5.0,15.0,51,0.00,,---,0.00,VWS V14.01,2013-01-24 16:20:00,
2013-01-24 10:22:00,52.7,35.1,30.33,NNE,19,7.0,15.0,51,0.00,,---,0.00,VWS V14.01,2013-01-24 16:22:00,
2013-01-24 10:23:00,52.7,34.6,30.33,North,349,9.0,15.0,50,0.00,,---,0.00,VWS V14.01,2013-01-24 16:23:00,
2013-01-24 10:25:00,52.8,35.2,30.33,NNW,340,6.0,15.0,51,0.00,,---,0.00,VWS V14.01,2013-01-24 16:25:00,
2013-01-24 10:27:00,52.8,34.7,30.33,NNW,338,7.0,15.0,50,0.00,,---,0.00,VWS V14.01,2013-01-24 16:27:00,
2013-01-24 10:28:00,52.7,34.6,30.33,NNE,18,11.0,15.0,50,0.00,,---,0.00,VWS V14.01,2013-01-24 16:28:00,
2013-01-24 10:29:00,52.8,34.7,30.33,North,10,7.0,15.0,50,0.00,,---,0.00,VWS V14.01,2013-01-24 16:29:00,
2013-01-24 10:31:00,52.8,34.7,30.33,NNE,17,5.0,7.0,50,0.00,,---,0.00,VWS V14.01,2013-01-24 16:31:00,
2013-01-24 10:32:00,52.8,35.2,30.33,NNW,342,4.0,8.0,51,0.00,,---,0.00,VWS V14.01,2013-01-24 16:32:00,
2013-01-24 10:33:00,52.9,34.8,30.33,NNW,342,9.0,11.0,50,0.00,,---,0.00,VWS V14.01,2013-01-24 16:33:00,
2013-01-24 10:34:00,52.9,34.8,30.33,NW,313,7.0,11.0,50,0.00,,---,0.00,VWS V14.01,2013-01-24 16:34:00,
2013-01-24 10:36:00,52.9,35.3,30.33,NNW,346,8.0,13.0,51,0.00,,---,0.00,VWS V14.01,2013-01-24 16:36:00,
2013-01-24 10:37:00,52.9,34.8,30.33,North,350,6.0,13.0,50,0.00,,---,0.00,VWS V14.01,2013-01-24 16:37:00,
2013-01-24 10:38:00,53.0,34.9,30.33,NNW,333,8.0,13.0,50,0.00,,---,0.00,VWS V14.01,2013-01-24 16:38:00,
2013-01-24 10:39:00,53.0,34.9,30.33,North,351,6.0,13.0,50,0.00,,---,0.00,VWS V14.01,2013-01-24 16:39:00,
2013-01-24 10:41:00,53.0,34.4,30.33,NNW,344,7.0,13.0,49,0.00,,---,0.00,VWS V14.01,2013-01-24 16:41:00,
2013-01-24 10:42:00,53.0,34.9,30.33,NNW,344,5.0,13.0,50,0.00,,---,0.00,VWS V14.01,2013-01-24 16:42:00,
2013-01-24 10:44:00,53.1,35.5,30.33,NNW,341,6.0,13.0,51,0.00,,---,0.00,VWS V14.01,2013-01-24 16:44:00,
2013-01-24 10:46:00,53.3,35.7,30.33,NW,308,5.0,13.0,51,0.00,,---,0.00,VWS V14.01,2013-01-24 16:46:00,
2013-01-24 10:47:00,53.4,35.2,30.33,North,349,5.0,13.0,50,0.00,,---,0.00,VWS V14.01,2013-01-24 16:47:00,
2013-01-24 10:49:00,53.5,35.3,30.33,North,360,6.0,13.0,50,0.00,,---,0.00,VWS V14.01,2013-01-24 16:49:00,
2013-01-24 10:51:00,53.7,35.0,30.33,NNW,342,10.0,13.0,49,0.00,,---,0.00,VWS V14.01,2013-01-24 16:51:00,
2013-01-24 10:53:00,53.8,35.1,30.33,North,355,7.0,13.0,49,0.00,,---,0.00,VWS V14.01,2013-01-24 16:53:00,
2013-01-24 10:54:00,54.0,35.3,30.33,North,5,7.0,13.0,49,0.00,,---,0.00,VWS V14.01,2013-01-24 16:54:00,
2013-01-24 10:55:00,54.0,35.3,30.33,North,355,6.0,13.0,49,0.00,,---,0.00,VWS V14.01,2013-01-24 16:55:00,
2013-01-24 10:56:00,54.1,35.4,30.33,North,355,9.0,13.0,49,0.00,,---,0.00,VWS V14.01,2013-01-24 16:56:00,
2013-01-24 10:58:00,54.3,35.0,30.33,NNW,340,8.0,13.0,48,0.00,,---,0.00,VWS V14.01,2013-01-24 16:58:00,
2013-01-24 10:59:00,54.4,35.1,30.33,NW,306,6.0,13.0,48,0.00,,---,0.00,VWS V14.01,2013-01-24 16:59:00,
2013-01-24 11:00:00,54.4,35.1,30.33,West,281,7.0,8.0,48,0.00,,---,0.00,VWS V14.01,2013-01-24 17:00:00,
2013-01-24 11:01:00,54.6,34.8,30.33,NW,317,8.0,12.0,47,0.00,,---,0.00,VWS V14.01,2013-01-24 17:01:00,
2013-01-24 11:03:00,54.6,34.2,30.33,NW,309,10.0,14.0,46,0.00,,---,0.00,VWS V14.01,2013-01-24 17:03:00,
2013-01-24 11:04:00,54.6,34.2,30.33,NNW,328,8.0,14.0,46,0.00,,---,0.00,VWS V14.01,2013-01-24 17:04:00,
2013-01-24 11:05:00,54.6,34.2,30.33,NNW,340,6.0,14.0,46,0.00,,---,0.00,VWS V14.01,2013-01-24 17:05:00,
2013-01-24 11:07:00,54.7,34.3,30.33,North,355,8.0,14.0,46,0.00,,---,0.00,VWS V14.01,2013-01-24 17:07:00,
2013-01-24 11:08:00,54.8,34.4,30.32,NNE,18,8.0,14.0,46,0.00,,---,0.00,VWS V14.01,2013-01-24 17:08:00,
2013-01-24 11:09:00,54.9,34.5,30.32,NNW,347,10.0,14.0,46,0.00,,---,0.00,VWS V14.01,2013-01-24 17:09:00,
2013-01-24 11:10:00,54.9,34.0,30.32,NNW,342,7.0,14.0,45,0.00,,---,0.00,VWS V14.01,2013-01-24 17:10:00,
2013-01-24 11:12:00,54.9,34.0,30.32,NNW,334,7.0,14.0,45,0.00,,---,0.00,VWS V14.01,2013-01-24 17:12:00,
2013-01-24 11:13:00,54.9,34.0,30.32,WNW,301,6.0,14.0,45,0.00,,---,0.00,VWS V14.01,2013-01-24 17:13:00,
2013-01-24 11:14:00,55.0,34.1,30.32,NNW,342,6.0,14.0,45,0.00,,---,0.00,VWS V14.01,2013-01-24 17:14:00,
2013-01-24 11:15:00,55.0,34.1,30.32,NNW,327,5.0,14.0,45,0.00,,---,0.00,VWS V14.01,2013-01-24 17:15:00,
2013-01-24 11:17:00,54.9,34.0,30.32,NNW,334,5.0,14.0,45,0.00,,---,0.00,VWS V14.01,2013-01-24 17:17:00,
2013-01-24 11:18:00,55.0,34.1,30.32,NW,317,3.0,14.0,45,0.00,,---,0.00,VWS V14.01,2013-01-24 17:18:00,
2013-01-24 11:19:00,55.0,34.1,30.32,NW,311,8.0,14.0,45,0.00,,---,0.00,VWS V14.01,2013-01-24 17:19:00,
2013-01-24 11:20:00,55.0,33.5,30.32,NNW,335,10.0,14.0,44,0.00,,---,0.00,VWS V14.01,2013-01-24 17:20:00,
2013-01-24 11:22:00,55.0,33.5,30.32,NW,304,3.0,14.0,44,0.00,,---,0.00,VWS V14.01,2013-01-24 17:22:00,
2013-01-24 11:23:00,55.1,34.2,30.32,North,5,5.0,14.0,45,0.00,,---,0.00,VWS V14.01,2013-01-24 17:23:00,
2013-01-24 11:24:00,55.2,33.7,30.32,NNE,19,4.0,14.0,44,0.00,,---,0.00,VWS V14.01,2013-01-24 17:24:00,
2013-01-24 11:25:00,55.3,33.8,30.32,North,5,6.0,14.0,44,0.00,,---,0.00,VWS V14.01,2013-01-24 17:25:00,
2013-01-24 11:27:00,55.4,33.9,30.32,North,5,7.0,14.0,44,0.00,,---,0.00,VWS V14.01,2013-01-24 17:27:00,
2013-01-24 11:28:00,55.5,32.8,30.32,North,5,8.0,14.0,42,0.00,,---,0.00,VWS V14.01,2013-01-24 17:28:00,
2013-01-24 11:29:00,55.6,33.5,30.32,NNW,344,6.0,8.0,43,0.00,,---,0.00,VWS V14.01,2013-01-24 17:29:00,
2013-01-24 11:31:00,55.7,33.0,30.32,NW,323,5.0,8.0,42,0.00,,---,0.00,VWS V14.01,2013-01-24 17:31:00,
2013-01-24 11:33:00,55.8,33.1,30.32,NNW,340,3.0,10.0,42,0.00,,---,0.00,VWS V14.01,2013-01-24 17:33:00,
2013-01-24 11:34:00,55.8,33.1,30.32,North,5,5.0,10.0,42,0.00,,---,0.00,VWS V14.01,2013-01-24 17:34:00,
2013-01-24 11:36:00,55.9,33.2,30.32,NNW,337,4.0,10.0,42,0.00,,---,0.00,VWS V14.01,2013-01-24 17:36:00,
2013-01-24 11:38:00,56.0,33.2,30.31,WNW,300,6.0,10.0,42,0.00,,---,0.00,VWS V14.01,2013-01-24 17:38:00,
2013-01-24 11:39:00,56.0,33.2,30.31,WNW,298,5.0,10.0,42,0.00,,---,0.00,VWS V14.01,2013-01-24 17:39:00,
2013-01-24 11:40:00,56.1,33.9,30.31,NNW,339,5.0,10.0,43,0.00,,---,0.00,VWS V14.01,2013-01-24 17:40:00,
2013-01-24 11:42:00,56.3,33.5,30.32,NNW,347,6.0,12.0,42,0.00,,---,0.00,VWS V14.01,2013-01-24 17:42:00,
2013-01-24 11:43:00,56.4,32.4,30.31,NNW,347,7.0,12.0,40,0.00,,---,0.00,VWS V14.01,2013-01-24 17:43:00,
2013-01-24 11:44:00,56.5,32.5,30.31,NNW,338,6.0,12.0,40,0.00,,---,0.00,VWS V14.01,2013-01-24 17:44:00,
2013-01-24 11:45:00,56.5,32.5,30.31,North,349,4.0,12.0,40,0.00,,---,0.00,VWS V14.01,2013-01-24 17:45:00,
2013-01-24 11:47:00,56.5,31.9,30.31,NNE,27,3.0,12.0,39,0.00,,---,0.00,VWS V14.01,2013-01-24 17:47:00,
2013-01-24 11:48:00,56.4,32.4,30.31,North,351,6.0,12.0,40,0.00,,---,0.00,VWS V14.01,2013-01-24 17:48:00,
2013-01-24 11:49:00,56.4,31.8,30.31,NNE,24,4.0,12.0,39,0.00,,---,0.00,VWS V14.01,2013-01-24 17:49:00,
2013-01-24 11:50:00,56.5,32.5,30.31,North,350,11.0,12.0,40,0.00,,---,0.00,VWS V14.01,2013-01-24 17:50:00,
2013-01-24 11:52:00,56.5,31.9,30.31,NNW,341,2.0,12.0,39,0.00,,---,0.00,VWS V14.01,2013-01-24 17:52:00,
2013-01-24 11:54:00,56.6,32.6,30.31,NNW,332,2.0,12.0,40,0.00,,---,0.00,VWS V14.01,2013-01-24 17:54:00,
2013-01-24 11:55:00,56.7,32.7,30.31,North,360,3.0,12.0,40,0.00,,---,0.00,VWS V14.01,2013-01-24 17:55:00,
2013-01-24 11:58:00,56.9,32.8,30.30,NW,307,10.0,12.0,40,0.00,,---,0.00,VWS V14.01,2013-01-24 17:58:00,
2013-01-24 11:59:00,57.1,32.4,30.30,North,360,6.0,12.0,39,0.00,,---,0.00,VWS V14.01,2013-01-24 17:59:00,
2013-01-24 12:00:00,57.2,31.8,30.31,NNW,332,6.0,7.0,38,0.00,,---,0.00,VWS V14.01,2013-01-24 18:00:00,
2013-01-24 12:03:00,57.3,31.9,30.30,NNE,16,6.0,10.0,38,0.00,,---,0.00,VWS V14.01,2013-01-24 18:03:00,
2013-01-24 12:04:00,57.3,30.6,30.30,North,350,4.0,10.0,36,0.00,,---,0.00,VWS V14.01,2013-01-24 18:04:00,
2013-01-24 12:05:00,57.3,30.6,30.30,NW,315,5.0,10.0,36,0.00,,---,0.00,VWS V14.01,2013-01-24 18:05:00,
2013-01-24 12:06:00,57.3,31.3,30.30,NW,317,8.0,10.0,37,0.00,,---,0.00,VWS V14.01,2013-01-24 18:06:00,
2013-01-24 12:08:00,57.2,31.2,30.30,WNW,299,6.0,10.0,37,0.00,,---,0.00,VWS V14.01,2013-01-24 18:08:00,
2013-01-24 12:09:00,57.2,31.2,30.30,NNW,336,5.0,10.0,37,0.00,,---,0.00,VWS V14.01,2013-01-24 18:09:00,
2013-01-24 12:10:00,57.2,31.2,30.30,WNW,296,10.0,10.0,37,0.00,,---,0.00,VWS V14.01,2013-01-24 18:10:00,
2013-01-24 12:11:00,57.2,30.5,30.30,NNW,333,11.0,11.0,36,0.00,,---,0.00,VWS V14.01,2013-01-24 18:11:00,
2013-01-24 12:13:00,57.0,30.3,30.30,NW,319,7.0,11.0,36,0.00,,---,0.00,VWS V14.01,2013-01-24 18:13:00,
2013-01-24 12:14:00,56.8,30.1,30.30,NNW,330,3.0,11.0,36,0.00,,---,0.00,VWS V14.01,2013-01-24 18:14:00,
2013-01-24 12:15:00,56.8,30.1,30.30,NW,318,9.0,11.0,36,0.00,,---,0.00,VWS V14.01,2013-01-24 18:15:00,
2013-01-24 12:16:00,56.7,30.1,30.30,NW,321,9.0,11.0,36,0.00,,---,0.00,VWS V14.01,2013-01-24 18:16:00,
2013-01-24 12:18:00,56.7,30.1,30.30,North,350,6.0,12.0,36,0.00,,---,0.00,VWS V14.01,2013-01-24 18:18:00,
2013-01-24 12:20:00,56.7,30.1,30.30,NNW,333,6.0,12.0,36,0.00,,---,0.00,VWS V14.01,2013-01-24 18:20:00,
2013-01-24 12:21:00,56.8,30.1,30.30,North,350,10.0,12.0,36,0.00,,---,0.00,VWS V14.01,2013-01-24 18:21:00,
2013-01-24 12:23:00,56.8,29.5,30.30,North,355,11.0,12.0,35,0.00,,---,0.00,VWS V14.01,2013-01-24 18:23:00,
2013-01-24 12:26:00,56.6,29.3,30.30,NNW,329,5.0,13.0,35,0.00,,---,0.00,VWS V14.01,2013-01-24 18:26:00,
2013-01-24 12:28:00,56.4,29.1,30.30,NNW,327,6.0,13.0,35,0.00,,---,0.00,VWS V14.01,2013-01-24 18:28:00,
2013-01-24 12:31:00,56.6,29.3,30.30,North,5,4.0,9.0,35,0.00,,---,0.00,VWS V14.01,2013-01-24 18:31:00,
2013-01-24 12:34:00,56.8,28.8,30.30,North,5,3.0,10.0,34,0.00,,---,0.00,VWS V14.01,2013-01-24 18:34:00,
2013-01-24 12:36:00,56.8,28.0,30.30,NNW,336,5.0,11.0,33,0.00,,---,0.00,VWS V14.01,2013-01-24 18:36:00,
2013-01-24 12:37:00,56.9,28.1,30.30,NNE,14,7.0,11.0,33,0.00,,---,0.00,VWS V14.01,2013-01-24 18:37:00,
2013-01-24 12:39:00,56.7,27.9,30.30,North,5,8.0,11.0,33,0.00,,---,0.00,VWS V14.01,2013-01-24 18:39:00,
2013-01-24 12:41:00,56.6,28.6,30.30,North,355,3.0,11.0,34,0.00,,---,0.00,VWS V14.01,2013-01-24 18:41:00,
2013-01-24 12:42:00,56.6,27.9,30.30,NNW,330,10.0,11.0,33,0.00,,---,0.00,VWS V14.01,2013-01-24 18:42:00,
2013-01-24 12:44:00,56.5,28.5,30.30,North,10,7.0,11.0,34,0.00,,---,0.00,VWS V14.01,2013-01-24 18:44:00,
2013-01-24 12:46:00,56.4,28.4,30.29,NNW,328,5.0,11.0,34,0.00,,---,0.00,VWS V14.01,2013-01-24 18:46:00,
2013-01-24 12:47:00,56.4,29.1,30.29,North,350,8.0,11.0,35,0.00,,---,0.00,VWS V14.01,2013-01-24 18:47:00,
2013-01-24 12:49:00,56.4,28.4,30.29,NW,325,5.0,11.0,34,0.00,,---,0.00,VWS V14.01,2013-01-24 18:49:00,
2013-01-24 12:51:00,56.5,28.5,30.30,NNE,12,9.0,11.0,34,0.00,,---,0.00,VWS V14.01,2013-01-24 18:51:00,
2013-01-24 12:52:00,56.5,28.5,30.30,NNW,343,8.0,11.0,34,0.00,,---,0.00,VWS V14.01,2013-01-24 18:52:00,
2013-01-24 12:54:00,56.4,26.9,30.29,North,360,7.0,11.0,32,0.00,,---,0.00,VWS V14.01,2013-01-24 18:54:00,
2013-01-24 12:56:00,56.3,26.8,30.30,NNW,329,1.0,11.0,32,0.00,,---,0.00,VWS V14.01,2013-01-24 18:56:00,
2013-01-24 12:57:00,56.2,27.5,30.29,North,360,2.0,11.0,33,0.00,,---,0.00,VWS V14.01,2013-01-24 18:57:00,
2013-01-24 12:58:00,56.2,27.5,30.29,North,355,3.0,11.0,33,0.00,,---,0.00,VWS V14.01,2013-01-24 18:58:00,
2013-01-24 12:59:00,56.1,27.4,30.29,NNW,346,10.0,10.0,33,0.00,,---,0.00,VWS V14.01,2013-01-24 18:59:00,
2013-01-24 13:02:00,56.0,25.0,30.29,NNW,346,5.0,12.0,30,0.00,,---,0.00,VWS V14.01,2013-01-24 19:02:00,
2013-01-24 13:03:00,56.0,25.8,30.29,North,355,5.0,12.0,31,0.00,,---,0.00,VWS V14.01,2013-01-24 19:03:00,
2013-01-24 13:05:00,55.9,24.9,30.29,North,360,8.0,12.0,30,0.00,,---,0.00,VWS V14.01,2013-01-24 19:05:00,
2013-01-24 13:07:00,55.7,24.8,30.29,NW,316,10.0,12.0,30,0.00,,---,0.00,VWS V14.01,2013-01-24 19:07:00,
2013-01-24 13:08:00,55.7,25.5,30.30,North,5,8.0,12.0,31,0.00,,---,0.00,VWS V14.01,2013-01-24 19:08:00,
2013-01-24 13:10:00,55.7,24.8,30.30,NNW,346,6.0,12.0,30,0.00,,---,0.00,VWS V14.01,2013-01-24 19:10:00,
2013-01-24 13:12:00,55.7,25.5,30.30,North,5,9.0,12.0,31,0.00,,---,0.00,VWS V14.01,2013-01-24 19:12:00,
2013-01-24 13:13:00,55.7,24.8,30.30,NNW,342,8.0,12.0,30,0.00,,---,0.00,VWS V14.01,2013-01-24 19:13:00,
2013-01-24 13:15:00,55.6,24.7,30.30,North,350,5.0,12.0,30,0.00,,---,0.00,VWS V14.01,2013-01-24 19:15:00,
2013-01-24 13:17:00,55.6,23.9,30.30,North,355,5.0,13.0,29,0.00,,---,0.00,VWS V14.01,2013-01-24 19:17:00,
2013-01-24 13:18:00,55.5,24.6,30.30,NE,36,7.0,13.0,30,0.00,,---,0.00,VWS V14.01,2013-01-24 19:18:00,
2013-01-24 13:20:00,55.4,24.5,30.30,North,355,9.0,13.0,30,0.00,,---,0.00,VWS V14.01,2013-01-24 19:20:00,
2013-01-24 13:22:00,55.4,24.5,30.30,NNW,340,7.0,13.0,30,0.00,,---,0.00,VWS V14.01,2013-01-24 19:22:00,
2013-01-24 13:23:00,55.4,24.5,30.30,NW,325,10.0,13.0,30,0.00,,---,0.00,VWS V14.01,2013-01-24 19:23:00,
2013-01-24 13:25:00,55.4,24.5,30.30,North,5,8.0,13.0,30,0.00,,---,0.00,VWS V14.01,2013-01-24 19:25:00,
2013-01-24 13:27:00,55.4,24.5,30.30,NNW,342,13.0,13.0,30,0.00,,---,0.00,VWS V14.01,2013-01-24 19:27:00,
2013-01-24 13:28:00,55.4,24.5,30.30,NNW,342,10.0,14.0,30,0.00,,---,0.00,VWS V14.01,2013-01-24 19:28:00,
2013-01-24 13:30:00,55.3,23.6,30.30,NNE,17,12.0,12.0,29,0.00,,---,0.00,VWS V14.01,2013-01-24 19:30:00,
2013-01-24 13:32:00,55.0,24.2,30.30,NNE,18,8.0,13.0,30,0.00,,---,0.00,VWS V14.01,2013-01-24 19:32:00,
2013-01-24 13:33:00,55.0,24.2,30.30,NNE,19,5.0,13.0,30,0.00,,---,0.00,VWS V14.01,2013-01-24 19:33:00,
2013-01-24 13:34:00,54.9,24.1,30.30,NNE,24,7.0,13.0,30,0.00,,---,0.00,VWS V14.01,2013-01-24 19:34:00,
2013-01-24 13:36:00,54.8,24.0,30.30,NNW,345,8.0,13.0,30,0.00,,---,0.00,VWS V14.01,2013-01-24 19:36:00,
2013-01-24 13:37:00,54.7,23.9,30.29,NNE,13,5.0,13.0,30,0.00,,---,0.00,VWS V14.01,2013-01-24 19:37:00,
2013-01-24 13:38:00,54.7,24.7,30.29,North,360,3.0,13.0,31,0.00,,---,0.00,VWS V14.01,2013-01-24 19:38:00,
2013-01-24 13:39:00,54.7,24.7,30.29,NNW,329,4.0,13.0,31,0.00,,---,0.00,VWS V14.01,2013-01-24 19:39:00,
2013-01-24 13:41:00,54.8,25.5,30.29,NNW,333,8.0,13.0,32,0.00,,---,0.00,VWS V14.01,2013-01-24 19:41:00,
2013-01-24 13:42:00,55.1,24.2,30.29,NW,315,8.0,13.0,30,0.00,,---,0.00,VWS V14.01,2013-01-24 19:42:00,
2013-01-24 13:44:00,55.2,24.3,30.29,North,350,6.0,13.0,30,0.00,,---,0.00,VWS V14.01,2013-01-24 19:44:00,
2013-01-24 13:46:00,55.4,24.5,30.29,NNW,343,7.0,13.0,30,0.00,,---,0.00,VWS V14.01,2013-01-24 19:46:00,
2013-01-24 13:47:00,55.4,24.5,30.29,North,350,11.0,13.0,30,0.00,,---,0.00,VWS V14.01,2013-01-24 19:47:00,
2013-01-24 13:49:00,55.4,24.5,30.29,North,9,6.0,13.0,30,0.00,,---,0.00,VWS V14.01,2013-01-24 19:49:00,
2013-01-24 13:51:00,55.3,23.6,30.29,North,360,4.0,13.0,29,0.00,,---,0.00,VWS V14.01,2013-01-24 19:51:00,
2013-01-24 13:53:00,55.3,24.4,30.29,NNW,329,5.0,13.0,30,0.00,,---,0.00,VWS V14.01,2013-01-24 19:53:00,
2013-01-24 13:54:00,55.3,24.4,30.29,NNW,338,6.0,13.0,30,0.00,,---,0.00,VWS V14.01,2013-01-24 19:54:00,
2013-01-24 13:55:00,55.3,24.4,30.29,NW,316,11.0,13.0,30,0.00,,---,0.00,VWS V14.01,2013-01-24 19:55:00,
2013-01-24 13:56:00,55.3,24.4,30.29,NW,309,8.0,13.0,30,0.00,,---,0.00,VWS V14.01,2013-01-24 19:56:00,
2013-01-24 13:58:00,55.2,24.3,30.29,NNW,342,6.0,13.0,30,0.00,,---,0.00,VWS V14.01,2013-01-24 19:58:00,
2013-01-24 13:59:00,55.1,24.2,30.29,North,355,4.0,13.0,30,0.00,,---,0.00,VWS V14.01,2013-01-24 19:59:00,
2013-01-24 14:00:00,55.1,24.2,30.29,NNW,345,5.0,9.0,30,0.00,,---,0.00,VWS V14.01,2013-01-24 20:00:00,
2013-01-24 14:01:00,55.0,24.2,30.29,NW,308,6.0,9.0,30,0.00,,---,0.00,VWS V14.01,2013-01-24 20:01:00,
2013-01-24 14:03:00,54.8,24.0,30.29,NW,326,3.0,9.0,30,0.00,,---,0.00,VWS V14.01,2013-01-24 20:03:00,
2013-01-24 14:04:00,54.6,23.8,30.29,NNW,343,5.0,9.0,30,0.00,,---,0.00,VWS V14.01,2013-01-24 20:04:00,
2013-01-24 14:05:00,54.5,23.7,30.29,NW,314,7.0,9.0,30,0.00,,---,0.00,VWS V14.01,2013-01-24 20:05:00,
2013-01-24 14:06:00,54.3,24.3,30.29,North,5,5.0,9.0,31,0.00,,---,0.00,VWS V14.01,2013-01-24 20:06:00,
2013-01-24 14:08:00,54.0,24.1,30.29,North,360,5.0,9.0,31,0.00,,---,0.00,VWS V14.01,2013-01-24 20:08:00,
2013-01-24 14:09:00,53.9,23.2,30.28,North,5,6.0,9.0,30,0.00,,---,0.00,VWS V14.01,2013-01-24 20:09:00,
2013-01-24 14:11:00,53.7,23.8,30.29,North,349,6.0,9.0,31,0.00,,---,0.00,VWS V14.01,2013-01-24 20:11:00,
2013-01-24 14:13:00,53.5,23.6,30.29,North,355,4.0,9.0,31,0.00,,---,0.00,VWS V14.01,2013-01-24 20:13:00,
2013-01-24 14:14:00,53.4,23.5,30.29,NNW,346,4.0,9.0,31,0.00,,---,0.00,VWS V14.01,2013-01-24 20:14:00,
2013-01-24 14:16:00,53.2,23.4,30.29,NNW,344,4.0,9.0,31,0.00,,---,0.00,VWS V14.01,2013-01-24 20:16:00,
2013-01-24 14:18:00,53.2,24.1,30.28,North,360,5.0,9.0,32,0.00,,---,0.00,VWS V14.01,2013-01-24 20:18:00,
2013-01-24 14:20:00,53.1,24.0,30.28,North,10,5.0,9.0,32,0.00,,---,0.00,VWS V14.01,2013-01-24 20:20:00,
2013-01-24 14:21:00,53.0,24.0,30.28,NNW,338,6.0,9.0,32,0.00,,---,0.00,VWS V14.01,2013-01-24 20:21:00,
2013-01-24 14:22:00,52.9,23.9,30.28,NNW,346,3.0,9.0,32,0.00,,---,0.00,VWS V14.01,2013-01-24 20:22:00,
2013-01-24 14:24:00,52.8,23.8,30.29,NNW,332,5.0,9.0,32,0.00,,---,0.00,VWS V14.01,2013-01-24 20:24:00,
2013-01-24 14:25:00,52.7,23.7,30.29,NNW,340,6.0,9.0,32,0.00,,---,0.00,VWS V14.01,2013-01-24 20:25:00,
2013-01-24 14:26:00,52.6,24.3,30.29,North,351,6.0,9.0,33,0.00,,---,0.00,VWS V14.01,2013-01-24 20:26:00,
2013-01-24 14:27:00,52.6,24.3,30.29,North,355,3.0,9.0,33,0.00,,---,0.00,VWS V14.01,2013-01-24 20:27:00,
2013-01-24 14:29:00,52.4,23.4,30.29,NNW,342,3.0,9.0,32,0.00,,---,0.00,VWS V14.01,2013-01-24 20:29:00,
2013-01-24 14:30:00,52.3,24.1,30.29,NNW,345,6.0,6.0,33,0.00,,---,0.00,VWS V14.01,2013-01-24 20:30:00,
2013-01-24 14:31:00,52.2,24.0,30.29,North,360,5.0,8.0,33,0.00,,---,0.00,VWS V14.01,2013-01-24 20:31:00,
2013-01-24 14:32:00,52.2,23.2,30.29,NW,321,6.0,8.0,32,0.00,,---,0.00,VWS V14.01,2013-01-24 20:32:00,
2013-01-24 14:34:00,52.1,23.9,30.29,NNW,335,5.0,8.0,33,0.00,,---,0.00,VWS V14.01,2013-01-24 20:34:00,
2013-01-24 14:35:00,52.0,23.8,30.29,North,351,5.0,9.0,33,0.00,,---,0.00,VWS V14.01,2013-01-24 20:35:00,
2013-01-24 14:37:00,51.9,23.7,30.29,North,351,8.0,9.0,33,0.00,,---,0.00,VWS V14.01,2013-01-24 20:37:00,
2013-01-24 14:38:00,51.8,23.6,30.29,North,360,4.0,9.0,33,0.00,,---,0.00,VWS V14.01,2013-01-24 20:38:00,
2013-01-24 14:39:00,51.8,23.6,30.29,North,360,4.0,9.0,33,0.00,,---,0.00,VWS V14.01,2013-01-24 20:39:00,
2013-01-24 14:40:00,51.8,23.6,30.29,North,351,7.0,9.0,33,0.00,,---,0.00,VWS V14.01,2013-01-24 20:40:00,
2013-01-24 14:42:00,51.7,23.5,30.28,NNW,341,7.0,9.0,33,0.00,,---,0.00,VWS V14.01,2013-01-24 20:42:00,
2013-01-24 14:43:00,51.7,23.5,30.28,NNW,340,5.0,9.0,33,0.00,,---,0.00,VWS V14.01,2013-01-24 20:43:00,
2013-01-24 14:44:00,51.7,23.5,30.28,North,360,6.0,9.0,33,0.00,,---,0.00,VWS V14.01,2013-01-24 20:44:00,
2013-01-24 14:45:00,51.7,23.5,30.29,North,350,6.0,9.0,33,0.00,,---,0.00,VWS V14.01,2013-01-24 20:45:00,
2013-01-24 14:47:00,51.7,23.5,30.29,NNW,343,3.0,9.0,33,0.00,,---,0.00,VWS V14.01,2013-01-24 20:47:00,
2013-01-24 14:48:00,51.8,23.6,30.29,NNW,341,7.0,9.0,33,0.00,,---,0.00,VWS V14.01,2013-01-24 20:48:00,
2013-01-24 14:49:00,51.8,23.6,30.29,NNW,332,7.0,9.0,33,0.00,,---,0.00,VWS V14.01,2013-01-24 20:49:00,
2013-01-24 14:50:00,51.9,23.7,30.29,NNW,344,6.0,9.0,33,0.00,,---,0.00,VWS V14.01,2013-01-24 20:50:00,
2013-01-24 14:52:00,52.0,23.8,30.28,NNE,13,4.0,9.0,33,0.00,,---,0.00,VWS V14.01,2013-01-24 20:52:00,
2013-01-24 14:53:00,52.1,23.9,30.28,North,349,4.0,9.0,33,0.00,,---,0.00,VWS V14.01,2013-01-24 20:53:00,
2013-01-24 14:54:00,52.2,24.0,30.28,NNW,343,7.0,9.0,33,0.00,,---,0.00,VWS V14.01,2013-01-24 20:54:00,
2013-01-24 14:56:00,52.3,23.3,30.28,North,355,4.0,9.0,32,0.00,,---,0.00,VWS V14.01,2013-01-24 20:56:00,
2013-01-24 14:57:00,52.5,23.5,30.28,NNW,344,4.0,9.0,32,0.00,,---,0.00,VWS V14.01,2013-01-24 20:57:00,
2013-01-24 14:58:00,52.6,23.6,30.28,NNW,327,4.0,9.0,32,0.00,,---,0.00,VWS V14.01,2013-01-24 20:58:00,
2013-01-24 15:00:00,52.8,23.8,30.28,NNW,346,5.0,6.0,32,0.00,,---,0.00,VWS V14.01,2013-01-24 21:00:00,
2013-01-24 15:01:00,52.9,23.1,30.28,North,355,4.0,7.0,31,0.00,,---,0.00,VWS V14.01,2013-01-24 21:01:00,
2013-01-24 15:02:00,53.0,23.2,30.28,NNW,348,4.0,8.0,31,0.00,,---,0.00,VWS V14.01,2013-01-24 21:02:00,
2013-01-24 15:03:00,53.1,23.3,30.28,NNW,347,5.0,8.0,31,0.00,,---,0.00,VWS V14.01,2013-01-24 21:03:00,
2013-01-24 15:05:00,53.2,23.4,30.28,North,355,3.0,8.0,31,0.00,,---,0.00,VWS V14.01,2013-01-24 21:05:00,
2013-01-24 15:06:00,53.2,22.6,30.28,North,355,1.0,8.0,30,0.00,,---,0.00,VWS V14.01,2013-01-24 21:06:00,
2013-01-24 15:07:00,53.3,22.7,30.28,North,351,4.0,8.0,30,0.00,,---,0.00,VWS V14.01,2013-01-24 21:07:00,
2013-01-24 15:08:00,53.5,23.6,30.28,NNW,348,6.0,8.0,31,0.00,,---,0.00,VWS V14.01,2013-01-24 21:08:00,
2013-01-24 15:10:00,53.5,22.9,30.28,North,5,5.0,8.0,30,0.00,,---,0.00,VWS V14.01,2013-01-24 21:10:00,
2013-01-24 15:11:00,53.6,22.1,30.29,NNW,344,5.0,8.0,29,0.00,,---,0.00,VWS V14.01,2013-01-24 21:11:00,
2013-01-24 15:12:00,53.6,22.9,30.29,NNW,338,6.0,8.0,30,0.00,,---,0.00,VWS V14.01,2013-01-24 21:12:00,
2013-01-24 15:13:00,53.6,22.9,30.29,NNW,348,7.0,8.0,30,0.00,,---,0.00,VWS V14.01,2013-01-24 21:13:00,
2013-01-24 15:15:00,53.6,22.9,30.29,North,360,6.0,9.0,30,0.00,,---,0.00,VWS V14.01,2013-01-24 21:15:00,
2013-01-24 15:16:00,53.6,22.9,30.29,NNW,332,5.0,9.0,30,0.00,,---,0.00,VWS V14.01,2013-01-24 21:16:00,
2013-01-24 15:17:00,53.6,22.9,30.29,NW,323,6.0,9.0,30,0.00,,---,0.00,VWS V14.01,2013-01-24 21:17:00,
2013-01-24 15:18:00,53.5,22.9,30.29,NNW,339,3.0,9.0,30,0.00,,---,0.00,VWS V14.01,2013-01-24 21:18:00,
2013-01-24 15:20:00,53.6,22.9,30.29,NNW,339,1.0,9.0,30,0.00,,---,0.00,VWS V14.01,2013-01-24 21:20:00,
2013-01-24 15:21:00,53.6,22.9,30.29,NNE,15,4.0,9.0,30,0.00,,---,0.00,VWS V14.01,2013-01-24 21:21:00,
2013-01-24 15:23:00,53.7,23.0,30.29,NW,320,7.0,9.0,30,0.00,,---,0.00,VWS V14.01,2013-01-24 21:23:00,
2013-01-24 15:25:00,53.7,23.0,30.29,NNW,329,3.0,9.0,30,0.00,,---,0.00,VWS V14.01,2013-01-24 21:25:00,
2013-01-24 15:26:00,53.6,22.9,30.29,NNW,348,4.0,9.0,30,0.00,,---,0.00,VWS V14.01,2013-01-24 21:26:00,
2013-01-24 15:28:00,53.5,22.9,30.29,NNW,348,1.0,9.0,30,0.00,,---,0.00,VWS V14.01,2013-01-24 21:28:00,
2013-01-24 15:30:00,53.5,23.6,30.29,NNW,348,3.0,4.0,31,0.00,,---,0.00,VWS V14.01,2013-01-24 21:30:00,
2013-01-24 15:31:00,53.5,23.6,30.29,NNW,348,1.0,4.0,31,0.00,,---,0.00,VWS V14.01,2013-01-24 21:31:00,
2013-01-24 15:33:00,53.5,23.6,30.29,NW,307,3.0,5.0,31,0.00,,---,0.00,VWS V14.01,2013-01-24 21:33:00,
2013-01-24 15:34:00,53.5,23.6,30.29,NW,314,2.0,5.0,31,0.00,,---,0.00,VWS V14.01,2013-01-24 21:34:00,
2013-01-24 15:35:00,53.6,24.5,30.29,NW,324,3.0,5.0,32,0.00,,---,0.00,VWS V14.01,2013-01-24 21:35:00,
2013-01-24 15:36:00,53.6,23.7,30.29,NW,304,4.0,5.0,31,0.00,,---,0.00,VWS V14.01,2013-01-24 21:36:00,
2013-01-24 15:39:00,53.5,23.6,30.29,NW,308,5.0,5.0,31,0.00,,---,0.00,VWS V14.01,2013-01-24 21:39:00,
2013-01-24 15:40:00,53.5,23.6,30.29,NNW,327,5.0,6.0,31,0.00,,---,0.00,VWS V14.01,2013-01-24 21:40:00,
2013-01-24 15:41:00,53.3,22.7,30.29,NNW,327,3.0,6.0,30,0.00,,---,0.00,VWS V14.01,2013-01-24 21:41:00,
2013-01-24 15:44:00,53.2,23.4,30.29,NNW,327,3.0,6.0,31,0.00,,---,0.00,VWS V14.01,2013-01-24 21:44:00,
2013-01-24 15:45:00,53.2,23.4,30.29,NNW,329,3.0,6.0,31,0.00,,---,0.00,VWS V14.01,2013-01-24 21:45:00,
2013-01-24 15:46:00,53.1,23.3,30.29,NNW,329,3.0,6.0,31,0.00,,---,0.00,VWS V14.01,2013-01-24 21:46:00,
2013-01-24 15:49:00,53.0,23.2,30.29,NNW,335,4.0,6.0,31,0.00,,---,0.00,VWS V14.01,2013-01-24 21:49:00,
2013-01-24 15:50:00,52.9,23.1,30.29,NNW,329,5.0,6.0,31,0.00,,---,0.00,VWS V14.01,2013-01-24 21:50:00,
2013-01-24 15:51:00,52.9,23.1,30.29,North,355,3.0,6.0,31,0.00,,---,0.00,VWS V14.01,2013-01-24 21:51:00,
2013-01-24 15:54:00,52.9,22.3,30.29,NNW,336,3.0,6.0,30,0.00,,---,0.00,VWS V14.01,2013-01-24 21:54:00,
2013-01-24 15:55:00,52.9,22.3,30.29,North,355,1.0,6.0,30,0.00,,---,0.00,VWS V14.01,2013-01-24 21:55:00,
2013-01-24 15:56:00,53.0,24.0,30.29,North,355,0.0,6.0,32,0.00,,---,0.00,VWS V14.01,2013-01-24 21:56:00,
2013-01-24 15:59:00,53.1,24.0,30.29,North,355,0.0,6.0,32,0.00,,---,0.00,VWS V14.01,2013-01-24 21:59:00,
2013-01-24 16:00:00,53.1,25.5,30.29,North,9,0.0,3.0,34,0.00,,---,0.00,VWS V14.01,2013-01-24 22:00:00,
2013-01-24 16:01:00,53.1,24.0,30.29,North,9,2.0,4.0,32,0.00,,---,0.00,VWS V14.01,2013-01-24 22:01:00,
2013-01-24 16:04:00,53.1,24.0,30.29,NNE,15,2.0,4.0,32,0.00,,---,0.00,VWS V14.01,2013-01-24 22:04:00,
2013-01-24 16:05:00,53.1,24.0,30.29,NNE,27,1.0,4.0,32,0.00,,---,0.00,VWS V14.01,2013-01-24 22:05:00,
2013-01-24 16:07:00,53.1,23.3,30.29,NNE,20,2.0,4.0,31,0.00,,---,0.00,VWS V14.01,2013-01-24 22:07:00,
2013-01-24 16:09:00,53.1,24.0,30.29,North,350,0.0,4.0,32,0.00,,---,0.00,VWS V14.01,2013-01-24 22:09:00,
2013-01-24 16:10:00,53.1,24.8,30.29,North,350,0.0,4.0,33,0.00,,---,0.00,VWS V14.01,2013-01-24 22:10:00,
2013-01-24 16:12:00,53.0,24.0,30.29,NE,40,2.0,4.0,32,0.00,,---,0.00,VWS V14.01,2013-01-24 22:12:00,
2013-01-24 16:14:00,53.0,23.2,30.29,North,355,5.0,5.0,31,0.00,,---,0.00,VWS V14.01,2013-01-24 22:14:00,
2013-01-24 16:15:00,53.0,23.2,30.29,NNW,344,6.0,6.0,31,0.00,,---,0.00,VWS V14.01,2013-01-24 22:15:00,
2013-01-24 16:17:00,52.9,22.3,30.29,North,350,1.0,7.0,30,0.00,,---,0.00,VWS V14.01,2013-01-24 22:17:00,
2013-01-24 16:19:00,52.8,21.4,30.29,NNE,33,3.0,7.0,29,0.00,,---,0.00,VWS V14.01,2013-01-24 22:19:00,
2013-01-24 16:20:00,52.8,21.4,30.29,NE,40,5.0,7.0,29,0.00,,---,0.00,VWS V14.01,2013-01-24 22:20:00,
2013-01-24 16:21:00,52.8,22.2,30.29,NNE,22,5.0,7.0,30,0.00,,---,0.00,VWS V14.01,2013-01-24 22:21:00,
2013-01-24 16:22:00,52.6,22.1,30.28,NE,36,2.0,7.0,30,0.00,,---,0.00,VWS V14.01,2013-01-24 22:22:00,
2013-01-24 16:24:00,52.3,23.3,30.29,ENE,71,3.0,7.0,32,0.00,,---,0.00,VWS V14.01,2013-01-24 22:24:00,
2013-01-24 16:25:00,52.2,22.5,30.29,NE,42,4.0,7.0,31,0.00,,---,0.00,VWS V14.01,2013-01-24 22:25:00,
2013-01-24 16:26:00,52.1,23.2,30.29,NE,54,5.0,8.0,32,0.00,,---,0.00,VWS V14.01,2013-01-24 22:26:00,
2013-01-24 16:27:00,51.9,22.2,30.29,NNE,17,2.0,8.0,31,0.00,,---,0.00,VWS V14.01,2013-01-24 22:27:00,
2013-01-24 16:30:00,51.6,22.7,30.29,NE,42,4.0,5.0,32,0.00,,---,0.00,VWS V14.01,2013-01-24 22:30:00,
2013-01-24 16:31:00,51.5,22.6,30.29,ENE,60,4.0,5.0,32,0.00,,---,0.00,VWS V14.01,2013-01-24 22:31:00,
2013-01-24 16:32:00,51.3,22.5,30.29,ENE,70,5.0,7.0,32,0.00,,---,0.00,VWS V14.01,2013-01-24 22:32:00,
2013-01-24 16:35:00,51.1,22.3,30.29,East,94,3.0,7.0,32,0.00,,---,0.00,VWS V14.01,2013-01-24 22:35:00,
2013-01-24 16:36:00,51.0,22.2,30.29,NE,49,3.0,7.0,32,0.00,,---,0.00,VWS V14.01,2013-01-24 22:36:00,
2013-01-24 16:37:00,50.8,22.0,30.29,ENE,61,1.0,8.0,32,0.00,,---,0.00,VWS V14.01,2013-01-24 22:37:00,
2013-01-24 16:40:00,50.6,21.9,30.29,NNE,28,3.0,8.0,32,0.00,,---,0.00,VWS V14.01,2013-01-24 22:40:00,
2013-01-24 16:41:00,50.5,22.5,30.29,NNE,32,3.0,8.0,33,0.00,,---,0.00,VWS V14.01,2013-01-24 22:41:00,
2013-01-24 16:43:00,50.3,22.3,30.29,NNE,30,2.0,8.0,33,0.00,,---,0.00,VWS V14.01,2013-01-24 22:43:00,
2013-01-24 16:45:00,50.1,22.8,30.29,NE,37,3.0,8.0,34,0.00,,---,0.00,VWS V14.01,2013-01-24 22:45:00,
2013-01-24 16:46:00,50.1,22.8,30.29,NNE,22,3.0,8.0,34,0.00,,---,0.00,VWS V14.01,2013-01-24 22:46:00,
2013-01-24 16:48:00,49.9,22.7,30.29,NE,44,2.0,8.0,34,0.00,,---,0.00,VWS V14.01,2013-01-24 22:48:00,
2013-01-24 16:50:00,49.8,22.6,30.29,NE,36,6.0,8.0,34,0.00,,---,0.00,VWS V14.01,2013-01-24 22:50:00,
2013-01-24 16:51:00,49.7,22.5,30.30,NE,34,3.0,8.0,34,0.00,,---,0.00,VWS V14.01,2013-01-24 22:51:00,
2013-01-24 16:52:00,49.7,22.5,30.30,NNE,32,4.0,8.0,34,0.00,,---,0.00,VWS V14.01,2013-01-24 22:52:00,
2013-01-24 16:53:00,49.7,22.5,30.30,NNE,12,1.0,8.0,34,0.00,,---,0.00,VWS V14.01,2013-01-24 22:53:00,
2013-01-24 16:55:00,49.6,22.4,30.30,NNE,22,2.0,8.0,34,0.00,,---,0.00,VWS V14.01,2013-01-24 22:55:00,
2013-01-24 16:56:00,49.5,23.0,30.30,NNE,33,4.0,8.0,35,0.00,,---,0.00,VWS V14.01,2013-01-24 22:56:00,
2013-01-24 16:57:00,49.5,23.0,30.30,NNE,33,2.0,8.0,35,0.00,,---,0.00,VWS V14.01,2013-01-24 22:57:00,
2013-01-24 16:58:00,49.5,23.7,30.30,NNE,28,3.0,8.0,36,0.00,,---,0.00,VWS V14.01,2013-01-24 22:58:00,
2013-01-24 17:00:00,49.4,23.6,30.30,NE,38,4.0,5.0,36,0.00,,---,0.00,VWS V14.01,2013-01-24 23:00:00,
2013-01-24 17:01:00,49.3,22.8,30.30,NNE,18,4.0,5.0,35,0.00,,---,0.00,VWS V14.01,2013-01-24 23:01:00,
2013-01-24 17:02:00,49.3,22.8,30.30,NNE,33,3.0,5.0,35,0.00,,---,0.00,VWS V14.01,2013-01-24 23:02:00,
2013-01-24 17:03:00,49.2,23.4,30.30,NNE,20,5.0,5.0,36,0.00,,---,0.00,VWS V14.01,2013-01-24 23:03:00,
2013-01-24 17:05:00,49.1,23.3,30.30,NE,34,1.0,5.0,36,0.00,,---,0.00,VWS V14.01,2013-01-24 23:05:00,
2013-01-24 17:06:00,49.0,22.6,30.30,NE,34,2.0,5.0,35,0.00,,---,0.00,VWS V14.01,2013-01-24 23:06:00,
2013-01-24 17:07:00,49.0,22.6,30.30,NE,34,2.0,5.0,35,0.00,,---,0.00,VWS V14.01,2013-01-24 23:07:00,
2013-01-24 17:08:00,48.9,22.5,30.30,NNE,28,3.0,5.0,35,0.00,,---,0.00,VWS V14.01,2013-01-24 23:08:00,
2013-01-24 17:10:00,48.7,22.3,30.30,NNE,19,5.0,6.0,35,0.00,,---,0.00,VWS V14.01,2013-01-24 23:10:00,
2013-01-24 17:12:00,48.7,21.6,30.30,North,9,3.0,7.0,34,0.00,,---,0.00,VWS V14.01,2013-01-24 23:12:00,
2013-01-24 17:13:00,48.6,21.5,30.30,NNE,19,1.0,7.0,34,0.00,,---,0.00,VWS V14.01,2013-01-24 23:13:00,
2013-01-24 17:15:00,48.5,21.4,30.30,NNE,22,3.0,7.0,34,0.00,,---,0.00,VWS V14.01,2013-01-24 23:15:00,
2013-01-24 17:17:00,48.5,21.4,30.30,NNE,22,3.0,7.0,34,0.00,,---,0.00,VWS V14.01,2013-01-24 23:17:00,
2013-01-24 17:18:00,48.4,21.3,30.30,NNE,28,2.0,7.0,34,0.00,,---,0.00,VWS V14.01,2013-01-24 23:18:00,
2013-01-24 17:20:00,48.4,21.3,30.31,NNE,33,3.0,7.0,34,0.00,,---,0.00,VWS V14.01,2013-01-24 23:20:00,
2013-01-24 17:22:00,48.3,21.2,30.31,NNE,33,3.0,7.0,34,0.00,,---,0.00,VWS V14.01,2013-01-24 23:22:00,
2013-01-24 17:24:00,48.3,21.2,30.31,NNE,19,5.0,7.0,34,0.00,,---,0.00,VWS V14.01,2013-01-24 23:24:00,
2013-01-24 17:26:00,48.2,21.2,30.31,North,5,4.0,7.0,34,0.00,,---,0.00,VWS V14.01,2013-01-24 23:26:00,
2013-01-24 17:27:00,48.2,21.2,30.31,North,5,5.0,7.0,34,0.00,,---,0.00,VWS V14.01,2013-01-24 23:27:00,
2013-01-24 17:29:00,48.1,21.8,30.31,North,5,5.0,7.0,35,0.00,,---,0.00,VWS V14.01,2013-01-24 23:29:00,
2013-01-24 17:31:00,48.0,21.7,30.31,NNE,17,3.0,5.0,35,0.00,,---,0.00,VWS V14.01,2013-01-24 23:31:00,
2013-01-24 17:32:00,47.9,21.6,30.31,NNE,14,4.0,5.0,35,0.00,,---,0.00,VWS V14.01,2013-01-24 23:32:00,
2013-01-24 17:34:00,47.9,21.6,30.31,NNE,17,2.0,5.0,35,0.00,,---,0.00,VWS V14.01,2013-01-24 23:34:00,
2013-01-24 17:36:00,47.7,21.4,30.31,NNE,17,1.0,5.0,35,0.00,,---,0.00,VWS V14.01,2013-01-24 23:36:00,
2013-01-24 17:37:00,47.7,22.1,30.32,North,5,3.0,5.0,36,0.00,,---,0.00,VWS V14.01,2013-01-24 23:37:00,
2013-01-24 17:38:00,47.7,22.1,30.32,North,5,4.0,5.0,36,0.00,,---,0.00,VWS V14.01,2013-01-24 23:38:00,
2013-01-24 17:39:00,47.6,22.0,30.32,NNE,17,3.0,5.0,36,0.00,,---,0.00,VWS V14.01,2013-01-24 23:39:00,
2013-01-24 17:41:00,47.5,21.9,30.31,North,9,3.0,5.0,36,0.00,,---,0.00,VWS V14.01,2013-01-24 23:41:00,
2013-01-24 17:42:00,47.4,21.8,30.31,North,360,2.0,5.0,36,0.00,,---,0.00,VWS V14.01,2013-01-24 23:42:00,
2013-01-24 17:43:00,47.4,21.8,30.31,North,360,3.0,5.0,36,0.00,,---,0.00,VWS V14.01,2013-01-24 23:43:00,
2013-01-24 17:44:00,47.4,21.8,30.31,North,360,3.0,5.0,36,0.00,,---,0.00,VWS V14.01,2013-01-24 23:44:00,
2013-01-24 17:46:00,47.3,21.7,30.31,North,360,3.0,5.0,36,0.00,,---,0.00,VWS V14.01,2013-01-24 23:46:00,
2013-01-24 17:48:00,47.2,22.3,30.31,North,360,2.0,5.0,37,0.00,,---,0.00,VWS V14.01,2013-01-24 23:48:00,
2013-01-24 17:49:00,47.2,22.3,30.31,North,360,1.0,5.0,37,0.00,,---,0.00,VWS V14.01,2013-01-24 23:49:00,
2013-01-24 17:51:00,47.1,21.5,30.31,North,360,2.0,5.0,36,0.00,,---,0.00,VWS V14.01,2013-01-24 23:51:00,
2013-01-24 17:53:00,47.0,21.5,30.31,North,360,2.0,5.0,36,0.00,,---,0.00,VWS V14.01,2013-01-24 23:53:00,
2013-01-24 17:54:00,46.9,21.4,30.31,North,360,3.0,5.0,36,0.00,,---,0.00,VWS V14.01,2013-01-24 23:54:00,
2013-01-24 17:56:00,46.8,21.3,30.31,North,360,3.0,5.0,36,0.00,,---,0.00,VWS V14.01,2013-01-24 23:56:00,
2013-01-24 17:58:00,46.7,21.8,30.31,North,360,3.0,5.0,37,0.00,,---,0.00,VWS V14.01,2013-01-24 23:58:00,
2013-01-24 18:00:00,46.6,21.7,30.31,North,360,2.0,3.0,37,0.00,,---,0.00,VWS V14.01,2013-01-25 00:00:00,
2013-01-24 18:01:00,46.5,22.3,30.31,North,360,3.0,3.0,38,0.00,,---,0.00,VWS V14.01,2013-01-25 00:01:00,
2013-01-24 18:03:00,46.4,22.2,30.31,North,360,2.0,3.0,38,0.00,,---,0.00,VWS V14.01,2013-01-25 00:03:00,
2013-01-24 18:05:00,46.3,22.7,30.31,North,360,2.0,3.0,39,0.00,,---,0.00,VWS V14.01,2013-01-25 00:05:00,
2013-01-24 18:06:00,46.3,22.7,30.31,North,360,3.0,3.0,39,0.00,,---,0.00,VWS V14.01,2013-01-25 00:06:00,
2013-01-24 18:08:00,46.2,22.6,30.31,North,360,3.0,4.0,39,0.00,,---,0.00,VWS V14.01,2013-01-25 00:08:00,
2013-01-24 18:09:00,46.2,22.6,30.31,North,360,3.0,4.0,39,0.00,,---,0.00,VWS V14.01,2013-01-25 00:09:00,
2013-01-24 18:10:00,46.2,22.6,30.31,North,360,3.0,4.0,39,0.00,,---,0.00,VWS V14.01,2013-01-25 00:10:00,
2013-01-24 18:12:00,46.1,21.9,30.31,North,360,2.0,4.0,38,0.00,,---,0.00,VWS V14.01,2013-01-25 00:12:00,
2013-01-24 18:13:00,46.1,21.9,30.31,North,360,3.0,4.0,38,0.00,,---,0.00,VWS V14.01,2013-01-25 00:13:00,
2013-01-24 18:14:00,46.1,21.9,30.31,North,360,3.0,4.0,38,0.00,,---,0.00,VWS V14.01,2013-01-25 00:14:00,
2013-01-24 18:15:00,46.1,21.9,30.31,North,360,3.0,4.0,38,0.00,,---,0.00,VWS V14.01,2013-01-25 00:15:00,
2013-01-24 18:17:00,46.0,21.8,30.31,North,355,2.0,4.0,38,0.00,,---,0.00,VWS V14.01,2013-01-25 00:17:00,
2013-01-24 18:18:00,46.0,21.8,30.31,North,355,2.0,4.0,38,0.00,,---,0.00,VWS V14.01,2013-01-25 00:18:00,
2013-01-24 18:19:00,46.0,21.8,30.31,North,355,4.0,4.0,38,0.00,,---,0.00,VWS V14.01,2013-01-25 00:19:00,
2013-01-24 18:20:00,46.0,21.8,30.31,North,355,4.0,4.0,38,0.00,,---,0.00,VWS V14.01,2013-01-25 00:20:00,
2013-01-24 18:22:00,45.9,21.7,30.31,North,360,2.0,5.0,38,0.00,,---,0.00,VWS V14.01,2013-01-25 00:22:00,
2013-01-24 18:24:00,45.9,21.7,30.31,North,355,3.0,5.0,38,0.00,,---,0.00,VWS V14.01,2013-01-25 00:24:00,
2013-01-24 18:25:00,45.9,21.7,30.32,North,355,3.0,5.0,38,0.00,,---,0.00,VWS V14.01,2013-01-25 00:25:00,
2013-01-24 18:27:00,45.8,21.6,30.31,North,5,3.0,5.0,38,0.00,,---,0.00,VWS V14.01,2013-01-25 00:27:00,
2013-01-24 18:29:00,45.8,21.6,30.31,North,5,3.0,5.0,38,0.00,,---,0.00,VWS V14.01,2013-01-25 00:29:00,
2013-01-24 18:30:00,45.7,21.6,30.31,North,360,3.0,3.0,38,0.00,,---,0.00,VWS V14.01,2013-01-25 00:30:00,
2013-01-24 18:32:00,45.7,21.6,30.31,North,9,5.0,5.0,38,0.00,,---,0.00,VWS V14.01,2013-01-25 00:32:00,
2013-01-24 18:34:00,45.7,21.6,30.31,North,9,4.0,5.0,38,0.00,,---,0.00,VWS V14.01,2013-01-25 00:34:00,
2013-01-24 18:35:00,45.6,21.5,30.31,North,5,4.0,5.0,38,0.00,,---,0.00,VWS V14.01,2013-01-25 00:35:00,
2013-01-24 18:37:00,45.6,21.5,30.31,NNE,26,3.0,6.0,38,0.00,,---,0.00,VWS V14.01,2013-01-25 00:37:00,
2013-01-24 18:40:00,45.6,21.5,30.31,NNE,12,5.0,6.0,38,0.00,,---,0.00,VWS V14.01,2013-01-25 00:40:00,
2013-01-24 18:42:00,45.6,21.5,30.31,North,360,4.0,6.0,38,0.00,,---,0.00,VWS V14.01,2013-01-25 00:42:00,
2013-01-24 18:45:00,45.6,21.5,30.31,North,360,1.0,6.0,38,0.00,,---,0.00,VWS V14.01,2013-01-25 00:45:00,
2013-01-24 18:46:00,45.5,21.4,30.31,North,360,2.0,6.0,38,0.00,,---,0.00,VWS V14.01,2013-01-25 00:46:00,
2013-01-24 18:48:00,45.5,21.4,30.31,North,360,4.0,6.0,38,0.00,,---,0.00,VWS V14.01,2013-01-25 00:48:00,
2013-01-24 18:50:00,45.5,22.0,30.32,North,10,3.0,6.0,39,0.00,,---,0.00,VWS V14.01,2013-01-25 00:50:00,
2013-01-24 18:51:00,45.4,21.9,30.31,NNE,17,1.0,6.0,39,0.00,,---,0.00,VWS V14.01,2013-01-25 00:51:00,
2013-01-24 18:53:00,45.4,21.9,30.32,NNE,24,3.0,6.0,39,0.00,,---,0.00,VWS V14.01,2013-01-25 00:53:00,
2013-01-24 18:55:00,45.4,22.5,30.32,NNE,28,5.0,6.0,40,0.00,,---,0.00,VWS V14.01,2013-01-25 00:55:00,
2013-01-24 18:56:00,45.3,22.4,30.32,NNE,28,2.0,6.0,40,0.00,,---,0.00,VWS V14.01,2013-01-25 00:56:00,
2013-01-24 18:58:00,45.3,23.0,30.32,NNE,28,2.0,6.0,41,0.00,,---,0.00,VWS V14.01,2013-01-25 00:58:00,
2013-01-24 19:00:00,45.2,22.3,30.32,NNE,19,4.0,4.0,40,0.00,,---,0.00,VWS V14.01,2013-01-25 01:00:00,
2013-01-24 19:01:00,45.2,22.3,30.32,NNE,24,4.0,5.0,40,0.00,,---,0.00,VWS V14.01,2013-01-25 01:01:00,
2013-01-24 19:03:00,45.2,22.3,30.32,NNE,33,3.0,6.0,40,0.00,,---,0.00,VWS V14.01,2013-01-25 01:03:00,
2013-01-24 19:05:00,45.2,22.9,30.32,NE,35,4.0,6.0,41,0.00,,---,0.00,VWS V14.01,2013-01-25 01:05:00,
2013-01-24 19:06:00,45.2,22.9,30.32,NE,39,3.0,6.0,41,0.00,,---,0.00,VWS V14.01,2013-01-25 01:06:00,
2013-01-24 19:08:00,45.2,23.5,30.32,NNE,32,2.0,6.0,42,0.00,,---,0.00,VWS V14.01,2013-01-25 01:08:00,
2013-01-24 19:10:00,45.1,23.4,30.32,NE,39,3.0,6.0,42,0.00,,---,0.00,VWS V14.01,2013-01-25 01:10:00,
2013-01-24 19:11:00,45.1,23.4,30.32,NE,52,5.0,6.0,42,0.00,,---,0.00,VWS V14.01,2013-01-25 01:11:00,
2013-01-24 19:13:00,45.1,23.4,30.32,NNE,17,5.0,6.0,42,0.00,,---,0.00,VWS V14.01,2013-01-25 01:13:00,
2013-01-24 19:15:00,45.1,23.4,30.32,NE,53,4.0,8.0,42,0.00,,---,0.00,VWS V14.01,2013-01-25 01:15:00,
2013-01-24 19:16:00,45.1,23.4,30.32,NE,50,2.0,8.0,42,0.00,,---,0.00,VWS V14.01,2013-01-25 01:16:00,
2013-01-24 19:17:00,45.1,23.4,30.32,NNE,27,3.0,8.0,42,0.00,,---,0.00,VWS V14.01,2013-01-25 01:17:00,
2013-01-24 19:18:00,45.1,23.4,30.32,ENE,62,3.0,8.0,42,0.00,,---,0.00,VWS V14.01,2013-01-25 01:18:00,
2013-01-24 19:20:00,45.1,23.4,30.32,NE,43,4.0,8.0,42,0.00,,---,0.00,VWS V14.01,2013-01-25 01:20:00,
2013-01-24 19:21:00,45.1,23.4,30.32,NE,43,2.0,8.0,42,0.00,,---,0.00,VWS V14.01,2013-01-25 01:21:00,
2013-01-24 19:22:00,45.1,23.4,30.32,NE,43,1.0,8.0,42,0.00,,---,0.00,VWS V14.01,2013-01-25 01:22:00,
2013-01-24 19:23:00,45.0,23.3,30.32,NNE,28,3.0,8.0,42,0.00,,---,0.00,VWS V14.01,2013-01-25 01:23:00,
2013-01-24 19:25:00,45.0,23.9,30.32,NE,46,2.0,8.0,43,0.00,,---,0.00,VWS V14.01,2013-01-25 01:25:00,
2013-01-24 19:26:00,45.0,23.9,30.32,NNE,28,1.0,8.0,43,0.00,,---,0.00,VWS V14.01,2013-01-25 01:26:00,
2013-01-24 19:27:00,45.0,23.9,30.32,NE,38,2.0,8.0,43,0.00,,---,0.00,VWS V14.01,2013-01-25 01:27:00,
2013-01-24 19:28:00,45.0,23.3,30.32,ENE,63,4.0,8.0,42,0.00,,---,0.00,VWS V14.01,2013-01-25 01:28:00,
2013-01-24 19:30:00,44.9,22.6,30.32,NE,45,3.0,7.0,41,0.00,,---,0.00,VWS V14.01,2013-01-25 01:30:00,
2013-01-24 19:31:00,45.0,23.3,30.32,NE,47,3.0,7.0,42,0.00,,---,0.00,VWS V14.01,2013-01-25 01:31:00,
2013-01-24 19:32:00,45.0,23.3,30.32,NNE,26,4.0,7.0,42,0.00,,---,0.00,VWS V14.01,2013-01-25 01:32:00,
2013-01-24 19:33:00,44.9,23.2,30.32,NNE,26,2.0,7.0,42,0.00,,---,0.00,VWS V14.01,2013-01-25 01:33:00,
2013-01-24 19:36:00,44.9,23.2,30.33,ENE,63,1.0,7.0,42,0.00,,---,0.00,VWS V14.01,2013-01-25 01:36:00,
2013-01-24 19:38:00,44.9,22.6,30.33,NE,42,2.0,7.0,41,0.00,,---,0.00,VWS V14.01,2013-01-25 01:38:00,
2013-01-24 19:41:00,44.9,22.6,30.33,NNE,30,5.0,7.0,41,0.00,,---,0.00,VWS V14.01,2013-01-25 01:41:00,
2013-01-24 19:43:00,45.0,23.3,30.33,NE,34,2.0,7.0,42,0.00,,---,0.00,VWS V14.01,2013-01-25 01:43:00,
2013-01-24 19:46:00,45.0,23.9,30.33,NNE,26,2.0,7.0,43,0.00,,---,0.00,VWS V14.01,2013-01-25 01:46:00,
2013-01-24 19:48:00,45.0,24.4,30.33,NNE,26,3.0,7.0,44,0.00,,---,0.00,VWS V14.01,2013-01-25 01:48:00,
2013-01-24 19:49:00,45.0,24.4,30.33,NNE,26,3.0,7.0,44,0.00,,---,0.00,VWS V14.01,2013-01-25 01:49:00,
2013-01-24 19:51:00,44.9,24.3,30.33,NNE,22,3.0,7.0,44,0.00,,---,0.00,VWS V14.01,2013-01-25 01:51:00,
2013-01-24 19:52:00,44.9,24.9,30.33,NNE,19,1.0,7.0,45,0.00,,---,0.00,VWS V14.01,2013-01-25 01:52:00,
2013-01-24 19:53:00,44.9,24.9,30.32,NNE,19,1.0,7.0,45,0.00,,---,0.00,VWS V14.01,2013-01-25 01:53:00,
2013-01-24 19:54:00,44.9,24.9,30.32,NNE,19,0.0,7.0,45,0.00,,---,0.00,VWS V14.01,2013-01-25 01:54:00,
2013-01-24 19:56:00,44.8,24.2,30.32,NE,38,2.0,7.0,44,0.00,,---,0.00,VWS V14.01,2013-01-25 01:56:00,
2013-01-24 19:57:00,44.7,24.1,30.32,NE,43,2.0,7.0,44,0.00,,---,0.00,VWS V14.01,2013-01-25 01:57:00,
2013-01-24 19:58:00,44.7,24.1,30.32,NE,53,2.0,7.0,44,0.00,,---,0.00,VWS V14.01,2013-01-25 01:58:00,
2013-01-24 19:59:00,44.7,24.1,30.32,NE,53,2.0,7.0,44,0.00,,---,0.00,VWS V14.01,2013-01-25 01:59:00,
2013-01-24 20:01:00,44.6,23.5,30.32,ENE,78,1.0,4.0,43,0.00,,---,0.00,VWS V14.01,2013-01-25 02:01:00,
2013-01-24 20:02:00,44.6,23.5,30.32,ENE,78,1.0,4.0,43,0.00,,---,0.00,VWS V14.01,2013-01-25 02:02:00,
2013-01-24 20:03:00,44.6,23.5,30.32,ENE,68,3.0,5.0,43,0.00,,---,0.00,VWS V14.01,2013-01-25 02:03:00,
2013-01-24 20:04:00,44.6,23.5,30.32,ENE,76,3.0,5.0,43,0.00,,---,0.00,VWS V14.01,2013-01-25 02:04:00,
2013-01-24 20:06:00,44.5,23.4,30.32,ENE,66,1.0,7.0,43,0.00,,---,0.00,VWS V14.01,2013-01-25 02:06:00,
2013-01-24 20:07:00,44.5,23.4,30.32,ENE,57,2.0,7.0,43,0.00,,---,0.00,VWS V14.01,2013-01-25 02:07:00,
2013-01-24 20:09:00,44.5,22.9,30.32,NE,47,2.0,7.0,42,0.00,,---,0.00,VWS V14.01,2013-01-25 02:09:00,
2013-01-24 20:11:00,44.5,23.4,30.31,ENE,65,3.0,7.0,43,0.00,,---,0.00,VWS V14.01,2013-01-25 02:11:00,
2013-01-24 20:12:00,44.5,23.4,30.31,East,92,2.0,7.0,43,0.00,,---,0.00,VWS V14.01,2013-01-25 02:12:00,
2013-01-24 20:14:00,44.5,21.7,30.31,ESE,103,3.0,8.0,40,0.00,,---,0.00,VWS V14.01,2013-01-25 02:14:00,
2013-01-24 20:16:00,44.5,22.3,30.31,ENE,66,7.0,8.0,41,0.00,,---,0.00,VWS V14.01,2013-01-25 02:16:00,
2013-01-24 20:17:00,44.4,22.2,30.31,ENE,68,3.0,8.0,41,0.00,,---,0.00,VWS V14.01,2013-01-25 02:17:00,
2013-01-24 20:19:00,44.4,21.6,30.31,NE,45,4.0,9.0,40,0.00,,---,0.00,VWS V14.01,2013-01-25 02:19:00,
2013-01-24 20:20:00,44.4,21.6,30.31,ENE,74,10.0,10.0,40,0.00,,---,0.00,VWS V14.01,2013-01-25 02:20:00,
2013-01-24 20:21:00,44.4,21.0,30.31,ENE,69,7.0,10.0,39,0.00,,---,0.00,VWS V14.01,2013-01-25 02:21:00,
2013-01-24 20:22:00,44.3,20.9,30.31,ENE,67,5.0,10.0,39,0.00,,---,0.00,VWS V14.01,2013-01-25 02:22:00,
2013-01-24 20:24:00,44.3,20.9,30.31,ENE,65,4.0,10.0,39,0.00,,---,0.00,VWS V14.01,2013-01-25 02:24:00,
2013-01-24 20:25:00,44.3,20.9,30.31,NE,50,4.0,10.0,39,0.00,,---,0.00,VWS V14.01,2013-01-25 02:25:00,
2013-01-24 20:27:00,44.3,20.9,30.30,NE,47,2.0,10.0,39,0.00,,---,0.00,VWS V14.01,2013-01-25 02:27:00,
2013-01-24 20:29:00,44.2,20.8,30.30,East,86,5.0,5.0,39,0.00,,---,0.00,VWS V14.01,2013-01-25 02:29:00,
2013-01-24 20:30:00,44.2,20.8,30.30,ESE,108,2.0,7.0,39,0.00,,---,0.00,VWS V14.01,2013-01-25 02:30:00,
2013-01-24 20:32:00,44.2,21.4,30.31,ENE,65,2.0,7.0,40,0.00,,---,0.00,VWS V14.01,2013-01-25 02:32:00,
2013-01-24 20:34:00,44.1,20.7,30.31,NNE,24,4.0,8.0,39,0.00,,---,0.00,VWS V14.01,2013-01-25 02:34:00,
2013-01-24 20:36:00,44.1,20.7,30.31,ENE,70,4.0,8.0,39,0.00,,---,0.00,VWS V14.01,2013-01-25 02:36:00,
2013-01-24 20:37:00,44.0,20.6,30.30,East,92,6.0,8.0,39,0.00,,---,0.00,VWS V14.01,2013-01-25 02:37:00,
2013-01-24 20:38:00,44.0,21.2,30.30,East,89,3.0,8.0,40,0.00,,---,0.00,VWS V14.01,2013-01-25 02:38:00,
2013-01-24 20:39:00,44.0,21.2,30.30,East,81,8.0,9.0,40,0.00,,---,0.00,VWS V14.01,2013-01-25 02:39:00,
2013-01-24 20:41:00,44.0,21.2,30.30,ESE,120,2.0,9.0,40,0.00,,---,0.00,VWS V14.01,2013-01-25 02:41:00,
2013-01-24 20:42:00,43.9,21.2,30.30,East,94,6.0,10.0,40,0.00,,---,0.00,VWS V14.01,2013-01-25 02:42:00,
2013-01-24 20:43:00,43.9,21.2,30.30,ENE,70,5.0,10.0,40,0.00,,---,0.00,VWS V14.01,2013-01-25 02:43:00,
2013-01-24 20:45:00,43.9,21.7,30.30,ENE,74,2.0,10.0,41,0.00,,---,0.00,VWS V14.01,2013-01-25 02:45:00,
2013-01-24 20:46:00,43.8,21.6,30.30,ENE,69,4.0,10.0,41,0.00,,---,0.00,VWS V14.01,2013-01-25 02:46:00,
2013-01-24 20:48:00,43.8,21.6,30.30,East,85,6.0,10.0,41,0.00,,---,0.00,VWS V14.01,2013-01-25 02:48:00,
2013-01-24 20:50:00,43.8,21.6,30.31,ENE,59,4.0,10.0,41,0.00,,---,0.00,VWS V14.01,2013-01-25 02:50:00,
2013-01-24 20:51:00,43.7,21.6,30.31,NE,55,4.0,10.0,41,0.00,,---,0.00,VWS V14.01,2013-01-25 02:51:00,
2013-01-24 20:53:00,43.7,22.1,30.31,ENE,65,7.0,10.0,42,0.00,,---,0.00,VWS V14.01,2013-01-25 02:53:00,
2013-01-24 20:55:00,43.7,22.1,30.31,ENE,74,3.0,10.0,42,0.00,,---,0.00,VWS V14.01,2013-01-25 02:55:00,
2013-01-24 20:56:00,43.7,22.7,30.31,NE,49,4.0,10.0,43,0.00,,---,0.00,VWS V14.01,2013-01-25 02:56:00,
2013-01-24 20:58:00,43.7,22.7,30.31,NE,56,3.0,10.0,43,0.00,,---,0.00,VWS V14.01,2013-01-25 02:58:00,
2013-01-24 21:00:00,43.7,22.7,30.31,ENE,63,1.0,5.0,43,0.00,,---,0.00,VWS V14.01,2013-01-25 03:00:00,
2013-01-24 21:01:00,43.6,22.6,30.31,East,89,2.0,5.0,43,0.00,,---,0.00,VWS V14.01,2013-01-25 03:01:00,
2013-01-24 21:03:00,43.6,22.6,30.31,East,88,1.0,7.0,43,0.00,,---,0.00,VWS V14.01,2013-01-25 03:03:00,
2013-01-24 21:05:00,43.6,22.6,30.31,NE,55,3.0,7.0,43,0.00,,---,0.00,VWS V14.01,2013-01-25 03:05:00,
2013-01-24 21:06:00,43.6,22.6,30.31,NE,55,3.0,7.0,43,0.00,,---,0.00,VWS V14.01,2013-01-25 03:06:00,
2013-01-24 21:08:00,43.6,22.6,30.31,NE,55,1.0,7.0,43,0.00,,---,0.00,VWS V14.01,2013-01-25 03:08:00,
2013-01-24 21:11:00,43.5,23.0,30.31,ENE,77,3.0,7.0,44,0.00,,---,0.00,VWS V14.01,2013-01-25 03:11:00,
2013-01-24 21:13:00,43.5,23.0,30.31,ENE,58,4.0,7.0,44,0.00,,---,0.00,VWS V14.01,2013-01-25 03:13:00,
2013-01-24 21:16:00,43.4,23.0,30.31,ENE,65,2.0,7.0,44,0.00,,---,0.00,VWS V14.01,2013-01-25 03:16:00,
2013-01-24 21:17:00,43.4,23.0,30.31,East,86,1.0,7.0,44,0.00,,---,0.00,VWS V14.01,2013-01-25 03:17:00,
2013-01-24 21:18:00,43.4,23.5,30.31,East,93,6.0,8.0,45,0.00,,---,0.00,VWS V14.01,2013-01-25 03:18:00,
2013-01-24 21:21:00,43.4,23.0,30.31,ENE,68,3.0,9.0,44,0.00,,---,0.00,VWS V14.01,2013-01-25 03:21:00,
2013-01-24 21:22:00,43.3,22.9,30.31,East,86,3.0,9.0,44,0.00,,---,0.00,VWS V14.01,2013-01-25 03:22:00,
2013-01-24 21:23:00,43.3,22.9,30.31,East,90,2.0,9.0,44,0.00,,---,0.00,VWS V14.01,2013-01-25 03:23:00,
2013-01-24 21:24:00,43.3,23.4,30.31,East,94,7.0,9.0,45,0.00,,---,0.00,VWS V14.01,2013-01-25 03:24:00,
2013-01-24 21:26:00,43.3,23.4,30.31,East,84,2.0,9.0,45,0.00,,---,0.00,VWS V14.01,2013-01-25 03:26:00,
2013-01-24 21:27:00,43.3,23.4,30.31,East,83,1.0,9.0,45,0.00,,---,0.00,VWS V14.01,2013-01-25 03:27:00,
2013-01-24 21:28:00,43.2,23.3,30.31,ESE,113,2.0,9.0,45,0.00,,---,0.00,VWS V14.01,2013-01-25 03:28:00,
2013-01-24 21:29:00,43.2,23.3,30.31,ESE,104,3.0,9.0,45,0.00,,---,0.00,VWS V14.01,2013-01-25 03:29:00,
2013-01-24 21:32:00,43.2,23.3,30.30,East,88,2.0,5.0,45,0.00,,---,0.00,VWS V14.01,2013-01-25 03:32:00,
2013-01-24 21:33:00,43.2,23.3,30.30,East,91,6.0,7.0,45,0.00,,---,0.00,VWS V14.01,2013-01-25 03:33:00,
2013-01-24 21:34:00,43.1,23.2,30.30,East,91,3.0,7.0,45,0.00,,---,0.00,VWS V14.01,2013-01-25 03:34:00,
2013-01-24 21:37:00,43.1,23.7,30.30,East,79,3.0,7.0,46,0.00,,---,0.00,VWS V14.01,2013-01-25 03:37:00,
2013-01-24 21:39:00,43.1,23.7,30.30,ENE,71,3.0,7.0,46,0.00,,---,0.00,VWS V14.01,2013-01-25 03:39:00,
2013-01-24 21:42:00,43.0,23.6,30.30,ENE,61,4.0,8.0,46,0.00,,---,0.00,VWS V14.01,2013-01-25 03:42:00,
2013-01-24 21:44:00,42.9,24.1,30.30,ENE,74,2.0,8.0,47,0.00,,---,0.00,VWS V14.01,2013-01-25 03:44:00,
2013-01-24 21:47:00,42.9,24.1,30.30,ENE,76,2.0,8.0,47,0.00,,---,0.00,VWS V14.01,2013-01-25 03:47:00,
2013-01-24 21:49:00,42.8,24.5,30.29,East,91,1.0,8.0,48,0.00,,---,0.00,VWS V14.01,2013-01-25 03:49:00,
2013-01-24 21:52:00,42.7,23.9,30.29,East,91,1.0,8.0,47,0.00,,---,0.00,VWS V14.01,2013-01-25 03:52:00,
2013-01-24 21:54:00,42.7,23.9,30.30,ENE,59,4.0,8.0,47,0.00,,---,0.00,VWS V14.01,2013-01-25 03:54:00,
2013-01-24 21:57:00,42.6,24.3,30.30,ENE,67,2.0,8.0,48,0.00,,---,0.00,VWS V14.01,2013-01-25 03:57:00,
2013-01-24 21:58:00,42.6,24.3,30.30,ENE,59,2.0,8.0,48,0.00,,---,0.00,VWS V14.01,2013-01-25 03:58:00,
2013-01-24 21:59:00,42.5,24.2,30.30,ENE,61,8.0,8.0,48,0.00,,---,0.00,VWS V14.01,2013-01-25 03:59:00,
2013-01-24 22:00:00,42.5,24.2,30.30,ENE,59,4.0,8.0,48,0.00,,---,0.00,VWS V14.01,2013-01-25 04:00:00,
2013-01-24 22:02:00,42.5,24.7,30.29,East,87,3.0,8.0,49,0.00,,---,0.00,VWS V14.01,2013-01-25 04:02:00,
2013-01-24 22:03:00,42.5,24.7,30.29,ENE,58,3.0,8.0,49,0.00,,---,0.00,VWS V14.01,2013-01-25 04:03:00,
2013-01-24 22:04:00,42.4,24.1,30.29,NE,55,3.0,8.0,48,0.00,,---,0.00,VWS V14.01,2013-01-25 04:04:00,
2013-01-24 22:05:00,42.4,24.1,30.29,NE,56,3.0,8.0,48,0.00,,---,0.00,VWS V14.01,2013-01-25 04:05:00,
2013-01-24 22:07:00,42.4,24.1,30.30,East,96,3.0,9.0,48,0.00,,---,0.00,VWS V14.01,2013-01-25 04:07:00,
2013-01-24 22:08:00,42.3,24.0,30.30,ENE,68,2.0,9.0,48,0.00,,---,0.00,VWS V14.01,2013-01-25 04:08:00,
2013-01-24 22:10:00,42.3,24.5,30.30,ENE,78,5.0,9.0,49,0.00,,---,0.00,VWS V14.01,2013-01-25 04:10:00,
2013-01-24 22:12:00,42.2,24.4,30.29,ENE,65,4.0,9.0,49,0.00,,---,0.00,VWS V14.01,2013-01-25 04:12:00,
2013-01-24 22:13:00,42.2,24.4,30.29,East,81,3.0,9.0,49,0.00,,---,0.00,VWS V14.01,2013-01-25 04:13:00,
2013-01-24 22:15:00,42.1,24.8,30.29,NNE,28,6.0,9.0,50,0.00,,---,0.00,VWS V14.01,2013-01-25 04:15:00,
2013-01-24 22:16:00,42.1,24.8,30.30,ENE,77,3.0,9.0,50,0.00,,---,0.00,VWS V14.01,2013-01-25 04:16:00,
2013-01-24 22:18:00,42.0,24.7,30.30,East,80,8.0,9.0,50,0.00,,---,0.00,VWS V14.01,2013-01-25 04:18:00,
2013-01-24 22:20:00,41.9,24.1,30.29,East,82,11.0,13.0,49,0.00,,---,0.00,VWS V14.01,2013-01-25 04:20:00,
2013-01-24 22:21:00,41.9,24.1,30.29,East,88,7.0,13.0,49,0.00,,---,0.00,VWS V14.01,2013-01-25 04:21:00,
2013-01-24 22:23:00,41.8,24.1,30.30,NE,47,4.0,13.0,49,0.00,,---,0.00,VWS V14.01,2013-01-25 04:23:00,
2013-01-24 22:25:00,41.7,24.0,30.30,ENE,66,2.0,13.0,49,0.00,,---,0.00,VWS V14.01,2013-01-25 04:25:00,
2013-01-24 22:26:00,41.6,23.9,30.30,NE,49,7.0,13.0,49,0.00,,---,0.00,VWS V14.01,2013-01-25 04:26:00,
2013-01-24 22:28:00,41.6,23.9,30.30,ENE,77,10.0,13.0,49,0.00,,---,0.00,VWS V14.01,2013-01-25 04:28:00,
2013-01-24 22:29:00,41.6,23.9,30.30,NE,48,3.0,13.0,49,0.00,,---,0.00,VWS V14.01,2013-01-25 04:29:00,
2013-01-24 22:30:00,41.5,23.8,30.30,NE,38,6.0,8.0,49,0.00,,---,0.00,VWS V14.01,2013-01-25 04:30:00,
2013-01-24 22:31:00,41.5,23.8,30.31,NE,38,4.0,10.0,49,0.00,,---,0.00,VWS V14.01,2013-01-25 04:31:00,
2013-01-24 22:33:00,41.4,23.7,30.30,NE,51,7.0,10.0,49,0.00,,---,0.00,VWS V14.01,2013-01-25 04:33:00,
2013-01-24 22:34:00,41.3,23.1,30.30,East,86,5.0,10.0,48,0.00,,---,0.00,VWS V14.01,2013-01-25 04:34:00,
2013-01-24 22:35:00,41.3,23.1,30.30,NE,48,4.0,10.0,48,0.00,,---,0.00,VWS V14.01,2013-01-25 04:35:00,
2013-01-24 22:36:00,41.2,23.5,30.30,NE,40,4.0,10.0,49,0.00,,---,0.00,VWS V14.01,2013-01-25 04:36:00,
2013-01-24 22:38:00,41.1,22.4,30.30,East,82,6.0,12.0,47,0.00,,---,0.00,VWS V14.01,2013-01-25 04:38:00,
2013-01-24 22:39:00,41.1,21.9,30.30,ENE,74,3.0,12.0,46,0.00,,---,0.00,VWS V14.01,2013-01-25 04:39:00,
2013-01-24 22:40:00,41.0,21.8,30.30,ENE,61,2.0,12.0,46,0.00,,---,0.00,VWS V14.01,2013-01-25 04:40:00,
2013-01-24 22:42:00,40.9,21.7,30.30,NE,40,6.0,12.0,46,0.00,,---,0.00,VWS V14.01,2013-01-25 04:42:00,
2013-01-24 22:43:00,40.8,21.6,30.30,ENE,63,8.0,12.0,46,0.00,,---,0.00,VWS V14.01,2013-01-25 04:43:00,
2013-01-24 22:44:00,40.8,21.6,30.30,ENE,72,7.0,12.0,46,0.00,,---,0.00,VWS V14.01,2013-01-25 04:44:00,
2013-01-24 22:45:00,40.7,21.5,30.30,East,101,5.0,12.0,46,0.00,,---,0.00,VWS V14.01,2013-01-25 04:45:00,
2013-01-24 22:47:00,40.7,21.5,30.30,East,92,5.0,12.0,46,0.00,,---,0.00,VWS V14.01,2013-01-25 04:47:00,
2013-01-24 22:48:00,40.6,21.5,30.30,NE,55,3.0,12.0,46,0.00,,---,0.00,VWS V14.01,2013-01-25 04:48:00,
2013-01-24 22:49:00,40.6,21.5,30.30,ESE,118,9.0,12.0,46,0.00,,---,0.00,VWS V14.01,2013-01-25 04:49:00,
2013-01-24 22:51:00,40.5,21.9,30.29,ENE,78,4.0,12.0,47,0.00,,---,0.00,VWS V14.01,2013-01-25 04:51:00,
2013-01-24 22:52:00,40.5,21.9,30.30,East,81,6.0,12.0,47,0.00,,---,0.00,VWS V14.01,2013-01-25 04:52:00,
2013-01-24 22:53:00,40.4,21.8,30.30,ENE,77,9.0,12.0,47,0.00,,---,0.00,VWS V14.01,2013-01-25 04:53:00,
2013-01-24 22:54:00,40.4,21.3,30.30,NE,56,6.0,12.0,46,0.00,,---,0.00,VWS V14.01,2013-01-25 04:54:00,
2013-01-24 22:56:00,40.4,21.8,30.30,ENE,65,5.0,12.0,47,0.00,,---,0.00,VWS V14.01,2013-01-25 04:56:00,
2013-01-24 22:57:00,40.4,21.8,30.30,NNE,24,7.0,12.0,47,0.00,,---,0.00,VWS V14.01,2013-01-25 04:57:00,
2013-01-24 22:59:00,40.4,21.8,30.29,East,79,6.0,12.0,47,0.00,,---,0.00,VWS V14.01,2013-01-25 04:59:00,
2013-01-24 23:00:00,40.4,21.8,30.30,ENE,74,0.0,3.0,47,0.00,,---,0.00,VWS V14.01,2013-01-25 05:00:00,
2013-01-24 23:01:00,40.4,22.3,30.30,ENE,67,3.0,4.0,48,0.00,,---,0.00,VWS V14.01,2013-01-25 05:01:00,
2013-01-24 23:05:00,40.3,22.2,30.29,East,91,1.0,7.0,48,0.00,,---,0.00,VWS V14.01,2013-01-25 05:05:00,
2013-01-24 23:06:00,40.2,22.1,30.29,ENE,74,9.0,10.0,48,0.00,,---,0.00,VWS V14.01,2013-01-25 05:06:00,
2013-01-24 23:10:00,40.2,21.6,30.29,NE,44,7.0,10.0,47,0.00,,---,0.00,VWS V14.01,2013-01-25 05:10:00,
2013-01-24 23:11:00,40.1,21.0,30.29,NE,40,8.0,10.0,46,0.00,,---,0.00,VWS V14.01,2013-01-25 05:11:00,
2013-01-24 23:15:00,40.1,21.0,30.30,ENE,59,1.0,10.0,46,0.00,,---,0.00,VWS V14.01,2013-01-25 05:15:00,
2013-01-24 23:16:00,40.0,21.4,30.30,ENE,73,3.0,10.0,47,0.00,,---,0.00,VWS V14.01,2013-01-25 05:16:00,
2013-01-24 23:20:00,40.0,21.4,30.30,ENE,57,3.0,10.0,47,0.00,,---,0.00,VWS V14.01,2013-01-25 05:20:00,
2013-01-24 23:21:00,40.0,21.4,30.30,NNE,32,3.0,10.0,47,0.00,,---,0.00,VWS V14.01,2013-01-25 05:21:00,
2013-01-24 23:25:00,39.9,21.3,30.29,ENE,71,4.0,10.0,47,0.00,,---,0.00,VWS V14.01,2013-01-25 05:25:00,
2013-01-24 23:26:00,39.9,21.3,30.29,ENE,69,3.0,10.0,47,0.00,,---,0.00,VWS V14.01,2013-01-25 05:26:00,
2013-01-24 23:30:00,39.8,21.7,30.29,NE,55,4.0,7.0,48,0.00,,---,0.00,VWS V14.01,2013-01-25 05:30:00,
2013-01-24 23:31:00,39.8,21.7,30.29,East,86,2.0,7.0,48,0.00,,---,0.00,VWS V14.01,2013-01-25 05:31:00,
2013-01-24 23:32:00,39.8,21.7,30.29,East,86,2.0,7.0,48,0.00,,---,0.00,VWS V14.01,2013-01-25 05:32:00,
2013-01-24 23:35:00,39.7,21.6,30.29,ENE,65,2.0,7.0,48,0.00,,---,0.00,VWS V14.01,2013-01-25 05:35:00,
2013-01-24 23:37:00,39.7,21.6,30.29,East,100,2.0,7.0,48,0.00,,---,0.00,VWS V14.01,2013-01-25 05:37:00,
2013-01-24 23:41:00,39.6,21.0,30.30,NE,52,3.0,9.0,47,0.00,,---,0.00,VWS V14.01,2013-01-25 05:41:00,
2013-01-24 23:42:00,39.7,21.1,30.30,ENE,64,5.0,9.0,47,0.00,,---,0.00,VWS V14.01,2013-01-25 05:42:00,
2013-01-24 23:46:00,39.6,21.5,30.30,ENE,70,2.0,9.0,48,0.00,,---,0.00,VWS V14.01,2013-01-25 05:46:00,
2013-01-24 23:47:00,39.6,21.5,30.29,East,88,2.0,9.0,48,0.00,,---,0.00,VWS V14.01,2013-01-25 05:47:00,
2013-01-24 23:48:00,39.6,21.5,30.29,ENE,71,3.0,10.0,48,0.00,,---,0.00,VWS V14.01,2013-01-25 05:48:00,
2013-01-24 23:51:00,39.6,21.0,30.29,ENE,77,3.0,10.0,47,0.00,,---,0.00,VWS V14.01,2013-01-25 05:51:00,
2013-01-24 23:52:00,39.6,21.5,30.29,ESE,105,3.0,10.0,48,0.00,,---,0.00,VWS V14.01,2013-01-25 05:52:00,
2013-01-24 23:53:00,39.6,21.0,30.29,East,79,2.0,10.0,47,0.00,,---,0.00,VWS V14.01,2013-01-25 05:53:00,
2013-01-24 23:56:00,39.6,21.0,30.29,East,82,3.0,10.0,47,0.00,,---,0.00,VWS V14.01,2013-01-25 05:56:00,
2013-01-24 23:57:00,39.5,21.0,30.29,ENE,63,3.0,10.0,47,0.00,,---,0.00,VWS V14.01,2013-01-25 05:57:00,
2013-01-24 23:58:00,39.6,21.0,30.29,ENE,74,2.0,10.0,47,0.00,,---,0.00,VWS V14.01,2013-01-25 05:58:00,